GFSFLT1_925_rhum_000.txt.gz
RH
67 76 83 83 84 85 85 88 86 81 84 81 82 91 80 65 71 80 77 77 76 77 80 86 89 86 85 83 76 74 76 73 78
72 81 78 82 86 85 86 83 85 89 87 83 82 86 82 64 69 75 81 81 65 76 77 77 77 78 76 78 74 73 72 73 75
75 80 81 85 85 87 88 89 85 83 86 88 86 89 89 73 68 71 78 74 69 77 78 77 77 75 73 73 76 73 71 72 74
78 88 93 89 86 84 87 93 91 88 86 86 88 89 90 88 66 65 72 75 73 78 73 77 78 76 74 70 74 76 72 71 71
83 82 88 91 90 86 86 92 92 89 84 84 87 89 86 90 75 62 61 71 75 83 73 75 77 76 76 75 71 75 75 73 72
73 74 79 78 84 90 85 91 90 91 83 73 70 75 86 91 84 68 57 60 77 83 81 74 76 75 75 76 75 71 72 73 74
77 75 78 79 78 82 91 91 91 90 89 81 71 65 66 75 78 78 62 54 74 78 80 77 73 77 73 75 76 76 72 71 70
76 80 82 79 78 75 80 83 82 84 83 81 79 71 67 64 65 63 64 62 75 75 75 76 76 76 78 72 71 74 73 73 74
72 75 74 74 72 70 74 77 79 81 79 78 76 68 66 63 54 43 41 48 57 71 68 73 76 79 80 80 74 70 71 71 71
62 66 68 68 70 69 68 68 69 73 72 72 71 69 65 63 64 57 38 33 39 55 70 64 71 71 77 79 78 76 72 72 74
58 62 68 68 67 70 71 71 72 72 73 71 69 65 65 62 60 60 59 54 47 44 56 72 60 64 68 73 76 78 77 76 76
63 64 67 66 65 66 69 72 74 74 73 72 70 68 65 62 61 60 59 59 57 53 50 61 69 64 61 62 69 73 78 82 83
65 66 65 65 68 71 72 72 74 76 77 77 75 74 72 69 67 64 62 61 61 60 58 53 55 61 61 61 62 66 67 70 76
68 68 68 70 71 73 76 78 82 82 83 84 81 81 79 76 74 73 70 68 68 66 64 62 62 59 56 65 64 64 65 66 67
83 83 84 85 86 87 88 87 87 88 87 89 88 85 82 79 77 75 73 71 71 71 70 69 68 67 66 65 69 70 70 68 65
85 84 84 85 91 92 95 95 93 94 93 98 92 87 80 77 74 71 74 72 66 67 64 64 67 68 64 61 60 66 74 76 75
45 46 48 52 66 78 90 98 100 97 92 97 94 96 80 73 67 66 72 70 71 77 69 72 68 64 60 60 58 56 56 73 79
39 37 36 36 38 44 50 76 96 98 95 94 97 93 88 85 77 70 70 69 69 67 67 69 69 68 66 65 64 58 58 58 73
38 36 35 36 38 44 49 48 53 70 91 91 86 95 97 95 93 74 76 75 73 75 74 72 72 72 73 72 68 64 64 63 62
38 36 35 35 38 42 51 53 51 56 74 82 92 90 86 86 89 89 76 70 68 74 78 79 78 76 74 75 72 69 67 66 68

GFSFLT1_925_rhum_006.txt.gz
RH
70 73 71 70 73 86 86 86 85 87 89 89 88 76 79 85 69 59 60 74 70 79 78 78 79 85 94 88 84 85 76 73 71
79 70 73 75 84 88 86 87 87 87 86 85 83 78 75 76 74 64 57 63 72 86 81 76 79 79 80 81 79 80 77 73 71
80 82 74 74 80 87 75 74 83 86 88 90 87 86 78 78 79 66 62 59 77 84 83 76 76 77 77 77 78 78 79 74 71
77 78 76 78 80 78 83 75 78 89 80 86 88 86 81 76 64 63 65 60 72 82 79 80 79 77 78 77 78 76 76 77 73
75 77 75 77 75 75 85 85 83 76 78 74 76 75 75 70 64 62 62 74 83 78 78 81 80 77 74 78 78 79 76 78 78
74 73 75 69 68 72 84 90 87 84 76 76 78 78 69 55 52 52 56 73 89 86 80 79 81 80 78 74 79 78 79 77 77
79 78 74 71 70 72 73 74 73 77 72 64 71 74 63 62 59 54 56 69 79 78 82 82 79 81 80 79 80 81 78 79 78
70 73 75 75 75 78 72 72 70 67 68 68 66 66 68 67 64 61 63 69 81 79 72 79 81 77 78 79 78 80 81 78 79
71 70 72 73 71 72 74 72 72 72 72 70 68 67 68 67 66 64 66 69 64 76 80 72 72 79 78 76 78 79 82 83 79
74 74 74 75 76 75 75 75 72 72 71 72 71 70 69 68 67 67 68 72 72 64 74 81 76 69 70 73 71 76 81 85 86
81 80 77 76 77 77 76 75 75 75 74 73 72 72 71 70 70 70 70 73 75 73 68 81 83 80 73 67 69 71 74 81 87
82 82 80 77 78 80 80 79 78 76 74 73 72 71 70 69 69 69 69 70 72 75 74 78 86 84 82 78 73 71 73 73 78
84 82 81 83 82 80 78 76 74 72 72 72 73 75 75 72 70 70 68 67 68 68 70 71 70 89 88 84 81 79 75 76 75
85 81 74 70 71 69 70 68 69 73 70 71 70 70 72 69 68 68 68 67 69 70 69 71 72 72 78 89 86 83 82 79 78
56 52 48 49 49 47 46 48 48 49 50 51 51 58 54 56 58 59 60 64 68 68 70 71 71 71 71 71 84 89 88 87 85
46 44 43 43 43 44 44 45 44 41 42 42 42 41 41 43 39 66 54 45 51 58 61 70 76 74 74 73 72 75 90 89 74
42 44 43 45 45 45 47 48 48 43 42 43 45 40 38 33 42 43 39 39 40 52 64 68 69 72 78 80 80 72 78 88 87
41 41 39 39 41 40 42 41 43 43 39 42 43 46 48 48 43 43 40 42 42 42 46 51 49 49 55 65 73 78 78 64 65
32 33 34 33 34 35 36 34 39 42 40 39 40 44 44 52 56 41 43 39 46 43 46 47 46 46 47 50 60 65 70 78 88
27 27 29 28 28 31 33 32 36 39 38 36 43 44 45 46 50 56 39 38 35 34 37 41 46 47 52 58 68 76 83 89 90

GFSFLT1_925_rhum_009.txt.gz
RH
81 68 70 71 76 86 87 86 85 82 81 84 83 84 78 76 71 64 56 57 64 73 80 78 77 78 78 90 89 83 83 81 74
85 82 71 72 76 80 81 79 82 89 87 87 86 84 80 74 68 70 62 55 59 69 80 78 78 80 77 75 80 79 79 81 73
87 88 80 67 72 75 73 84 82 89 87 85 91 87 75 76 66 70 65 61 59 68 78 77 79 75 77 76 77 77 77 77 78
73 82 80 72 78 82 80 71 84 85 89 93 88 73 70 80 67 61 57 57 66 68 73 79 78 76 77 82 78 77 78 77 78
68 70 73 76 74 69 64 85 85 87 88 79 73 71 74 80 69 61 58 56 66 73 75 76 77 76 79 72 80 78 78 77 78
65 61 64 60 58 63 69 82 87 76 73 70 68 71 81 67 55 48 47 49 63 72 82 82 78 79 79 80 77 81 80 78 78
64 62 64 66 67 73 71 73 72 78 81 63 61 74 66 59 57 56 55 52 60 69 77 80 80 80 80 81 80 79 83 84 79
59 61 64 69 68 74 68 68 70 64 65 64 62 60 60 60 60 59 58 59 66 72 79 83 77 78 82 80 78 81 80 83 86
60 60 64 66 66 66 68 67 65 65 64 62 61 61 61 62 61 61 60 62 64 74 81 87 86 80 76 79 80 78 82 83 84
66 65 65 66 68 69 68 67 64 63 62 62 62 61 60 60 60 62 63 63 65 68 79 85 91 87 83 77 75 79 81 82 84
73 72 68 68 68 68 69 71 70 68 65 65 65 61 59 59 59 60 62 64 66 68 71 84 89 95 90 85 81 75 77 80 81
74 73 71 74 75 73 70 66 63 60 58 56 57 58 60 62 61 60 60 63 65 65 66 70 84 89 93 91 86 85 82 76 79
76 75 73 65 63 60 58 52 50 49 49 50 52 52 53 54 54 56 57 59 63 64 66 67 68 75 84 87 89 86 86 87 83
59 51 46 44 44 41 39 38 39 38 38 38 38 38 42 46 43 45 51 52 57 61 64 62 66 67 69 77 84 88 91 90 91
43 40 39 38 38 39 41 41 43 42 40 39 39 40 38 37 38 43 45 40 38 36 38 48 58 62 70 74 79 84 87 90 91
41 40 39 41 41 41 40 38 40 38 37 36 38 38 34 30 37 35 34 38 38 36 41 48 48 53 60 63 67 69 80 88 94
36 38 36 36 36 36 36 34 36 33 33 36 37 41 34 31 35 36 37 36 40 37 39 46 44 44 45 48 48 56 66 69 66
30 31 29 29 30 30 31 29 33 36 32 32 31 40 40 40 38 34 34 33 32 34 32 34 35 36 36 36 39 46 52 70 77
25 24 27 26 26 28 29 26 31 34 32 30 27 31 32 44 43 30 34 29 26 27 30 30 30 32 39 43 38 51 67 79 78
25 23 25 25 27 28 30 29 31 35 33 28 32 31 34 34 35 37 32 28 27 29 31 34 38 43 45 46 47 47 60 63 65

GFSFLT1_925_rhum_012.txt.gz
RH
81 66 71 72 77 73 84 84 83 84 80 78 72 76 78 81 72 69 70 59 57 66 79 83 79 78 76 80 88 90 84 83 83
89 79 66 70 72 74 78 77 83 90 94 90 90 85 68 56 61 68 65 68 60 60 69 78 79 79 78 78 77 78 81 79 81
85 87 80 72 68 77 83 80 83 86 92 95 95 95 82 73 70 71 64 63 66 63 64 75 79 78 78 77 77 78 78 78 79
71 79 74 69 68 70 75 85 84 82 86 88 92 89 76 71 67 60 64 61 65 66 71 71 76 80 79 77 82 83 79 79 80
63 66 69 71 75 70 56 64 79 83 74 77 62 62 68 73 68 66 57 56 61 64 70 74 76 75 78 78 80 79 86 81 80
67 68 66 64 58 53 56 59 65 69 70 64 64 68 70 69 66 63 56 50 55 58 66 73 79 78 78 80 82 82 79 84 82
60 60 58 66 68 70 70 70 70 71 68 67 66 63 64 67 68 61 59 58 60 61 64 71 78 85 83 81 81 82 84 82 86
58 60 61 65 69 68 68 68 68 66 66 67 67 66 64 63 61 62 61 61 63 66 68 72 79 84 87 83 82 82 82 85 85
61 61 64 65 66 67 68 69 68 68 67 65 63 61 62 63 63 62 62 62 62 67 73 76 80 85 88 92 87 82 84 84 83
68 69 69 67 69 71 71 72 72 70 66 67 65 60 62 58 59 58 59 60 63 64 68 76 80 83 83 91 93 91 84 83 86
74 73 72 71 73 73 72 68 63 60 58 56 58 58 58 56 56 58 59 59 63 63 63 72 78 82 84 81 86 88 92 91 85
76 76 74 64 64 60 58 48 43 43 42 41 47 48 49 47 52 52 52 53 54 61 62 63 68 72 75 79 79 79 85 89 93
68 54 48 45 45 39 38 39 41 42 41 42 38 38 36 38 41 39 40 49 49 45 42 50 48 61 64 69 73 77 81 84 88
44 40 39 38 40 41 41 40 43 41 40 41 35 36 39 31 37 41 35 26 27 36 38 39 42 49 56 67 75 79 79 84 86
40 39 39 39 40 39 38 37 34 35 36 32 37 26 30 32 36 28 22 31 31 35 42 40 45 43 40 47 53 57 66 66 73
32 34 33 31 35 34 32 32 32 35 34 36 35 31 26 28 24 16 34 28 34 36 27 35 33 29 32 34 40 42 40 44 50
25 23 27 25 29 28 28 28 33 35 34 35 37 53 35 28 32 35 31 36 27 23 29 27 20 29 28 28 28 40 53 55 65
18 20 23 23 26 28 27 28 30 37 34 32 36 57 55 39 34 33 33 22 28 26 25 26 29 30 37 35 33 37 51 60 66
18 22 24 24 26 26 26 28 28 34 38 35 30 32 35 46 48 35 30 28 27 28 30 31 40 35 32 41 42 45 47 52 53
20 22 22 24 23 24 24 25 26 28 32 34 34 35 34 31 41 47 38 33 31 33 34 44 39 34 38 27 34 44 45 46 50

GFSFLT1_925_rhum_015.txt.gz
RH
76 63 70 71 67 70 68 70 73 78 79 81 84 79 74 70 73 67 67 70 62 60 75 82 84 81 80 79 84 93 93 88 84
84 69 65 70 67 72 79 80 84 88 93 96 94 94 83 73 63 60 60 61 69 69 63 70 79 82 81 80 79 79 81 84 81
89 84 80 76 77 75 80 86 88 84 89 92 95 92 88 78 69 61 58 63 65 76 68 66 72 80 81 81 80 80 80 81 81
71 84 82 74 71 74 77 85 90 88 85 86 86 74 71 72 71 71 62 56 59 72 71 71 74 75 77 82 82 81 80 83 82
59 62 66 67 73 71 55 54 57 62 68 66 59 56 65 68 68 65 60 58 56 70 67 69 74 78 79 78 80 83 83 80 86
68 69 69 65 60 63 68 69 70 71 69 66 65 66 65 65 65 66 63 60 58 70 60 59 68 76 82 84 83 81 81 82 80
68 63 59 65 68 68 68 69 70 70 69 68 68 68 66 65 64 64 62 62 66 68 66 64 64 73 81 86 88 87 84 82 82
58 60 62 65 67 68 69 70 71 72 72 71 70 71 70 69 67 65 65 66 68 69 69 70 72 74 80 85 90 96 90 85 84
62 63 66 68 69 71 73 73 72 71 67 68 68 62 63 65 62 62 65 66 67 74 70 72 74 78 84 87 86 88 89 93 85
70 70 73 74 73 73 73 66 61 56 54 53 50 49 52 51 48 46 48 49 49 52 64 70 69 70 77 83 88 82 83 90 93
75 73 72 68 64 57 49 44 43 43 43 41 39 40 40 41 37 40 41 42 50 56 56 68 74 78 78 80 81 77 79 84 86
71 59 50 45 46 46 44 36 35 37 36 36 40 38 34 32 34 38 43 34 29 35 46 42 53 59 64 68 71 76 83 87 89
62 48 40 40 38 37 37 36 36 32 35 34 27 26 22 25 42 36 26 20 30 24 38 39 41 45 53 57 59 61 65 66 74
39 35 36 38 38 36 33 28 22 33 27 25 31 11 28 27 34 27 15 21 29 34 33 25 27 28 40 44 46 48 49 48 50
34 32 27 27 31 28 23 20 17 27 31 31 18 17 32 19 30 13 18 25 30 31 21 22 19 20 26 40 39 38 42 42 50
22 21 20 22 26 23 25 20 22 25 32 34 26 24 24 25 17 21 33 22 34 22 25 22 17 23 30 32 40 47 35 46 51
18 18 18 19 20 19 25 25 27 33 34 40 44 55 34 26 23 33 17 36 25 23 18 24 29 29 36 38 35 36 44 59 60
17 16 16 18 20 18 22 25 27 37 30 29 37 55 59 40 34 24 33 20 30 28 30 30 31 39 38 35 31 41 42 47 54
17 18 19 20 19 19 21 22 24 23 31 27 31 34 34 58 52 37 31 34 34 33 34 34 40 36 39 32 29 42 45 50 50
18 19 21 21 20 21 21 21 21 21 27 29 28 32 31 36 49 47 43 37 36 35 37 37 38 41 35 37 33 36 45 49 50

GFSFLT1_925_rhum_018.txt.gz
RH
70 63 65 68 67 70 71 73 75 78 78 83 90 91 84 73 66 60 57 58 70 79 67 83 84 85 83 82 85 90 96 95 92
76 69 70 70 69 73 78 83 86 88 91 93 90 92 89 86 77 69 59 56 63 80 78 66 76 80 81 82 81 80 81 79 79
84 82 78 77 76 76 78 83 90 90 87 89 92 90 84 80 74 73 73 64 54 80 79 76 71 71 76 80 78 82 77 79 80
80 87 83 79 75 74 75 65 69 69 74 74 65 61 61 66 67 68 64 58 56 72 77 74 75 76 78 77 79 76 83 75 85
67 72 73 69 70 62 56 64 70 72 72 70 68 69 68 66 66 65 64 63 61 77 80 74 71 73 78 83 85 82 80 75 81
66 66 65 63 66 68 69 70 71 72 72 71 70 70 70 69 68 66 65 65 65 76 83 75 66 67 71 77 86 89 88 85 82
66 64 63 65 69 70 70 71 73 73 73 69 68 71 72 71 72 71 70 71 75 84 78 74 75 74 71 70 84 87 89 87 90
61 63 63 65 68 70 72 74 75 75 75 72 73 65 65 64 58 53 57 58 75 70 70 73 74 76 81 86 86 89 91 94 93
64 66 68 74 76 77 77 75 67 60 54 49 48 47 52 48 42 41 45 48 49 64 71 75 78 79 79 82 86 91 91 84 85
72 77 79 75 74 66 54 52 51 52 49 46 42 40 40 38 38 37 39 40 43 50 60 65 67 70 74 74 76 82 84 86 86
79 69 61 53 51 50 49 46 41 38 35 32 32 34 32 29 29 36 37 28 30 29 53 58 61 71 68 68 68 68 71 74 78
66 63 52 47 46 43 37 32 30 27 24 22 20 17 15 20 40 34 20 25 28 26 51 48 60 53 54 56 58 60 62 63 61
60 53 44 40 36 34 30 24 17 19 16 14 16 11 25 29 32 27 15 26 22 34 26 36 37 40 40 46 51 52 52 52 54
49 32 34 32 28 24 19 15 17 19 15 17 15 12 28 25 28 15 16 23 24 28 27 23 15 30 38 44 45 48 52 53 48
30 24 21 22 20 17 15 14 18 25 23 21 14 15 31 27 24 12 26 15 35 30 23 17 10 14 40 37 49 52 48 44 46
21 19 18 18 17 18 19 15 15 26 23 31 25 20 20 26 18 22 20 25 26 16 23 18 25 29 28 45 50 48 41 48 45
19 18 16 17 16 15 18 19 20 27 28 35 51 56 39 28 16 32 17 31 16 32 25 25 32 31 42 42 42 44 39 42 51
19 18 17 16 16 16 19 20 21 27 26 35 33 50 57 42 30 21 32 23 32 31 33 34 36 37 36 36 40 40 46 41 43
18 18 18 18 18 18 20 21 21 22 31 30 26 32 35 52 55 37 34 32 32 36 39 35 40 38 39 40 39 45 41 46 55
18 16 17 19 20 21 21 20 21 22 25 27 32 33 33 31 63 50 41 32 35 37 36 37 39 36 39 42 41 40 48 54 56

GFSFLT1_925_rhum_021.txt.gz
RH
74 69 66 71 66 69 66 68 74 76 81 92 92 91 87 73 69 66 59 53 50 79 81 76 83 84 87 84 81 86 93 93 94
80 77 71 73 68 71 72 80 86 88 89 92 87 84 83 84 76 75 74 70 57 79 82 81 70 84 83 76 78 80 74 76 78
80 82 77 77 74 72 71 75 80 85 88 87 87 82 72 70 70 71 72 68 61 78 80 81 82 74 74 74 77 75 75 77 76
83 86 83 77 72 71 68 65 75 79 83 84 79 73 69 68 68 69 68 68 65 85 83 82 80 78 79 80 81 81 80 77 75
72 80 74 67 68 69 68 71 74 75 75 74 74 74 74 74 73 71 70 70 69 78 85 86 84 77 76 78 84 89 89 85 82
62 62 64 66 69 71 74 75 75 76 75 76 77 78 78 79 78 76 73 76 91 94 92 89 88 85 74 69 70 83 90 90 85
66 66 66 66 69 72 74 76 78 77 75 75 74 70 68 68 62 59 58 78 81 79 76 78 81 83 84 78 82 82 85 91 93
64 65 67 67 69 71 76 78 69 69 65 60 54 53 55 52 47 44 44 57 68 68 68 73 78 83 86 85 86 90 92 95 92
65 67 71 78 80 80 75 70 57 52 51 49 46 43 40 40 38 39 39 39 60 64 67 72 73 74 77 78 84 86 87 90 94
77 76 77 76 72 62 54 51 50 45 40 35 33 32 29 28 32 34 29 33 35 57 66 61 72 72 70 70 70 72 73 76 78
74 65 58 56 49 46 44 41 34 30 26 22 19 19 14 22 36 27 24 29 24 42 56 62 59 60 57 57 61 64 65 65 63
63 62 61 48 45 39 32 27 21 17 14 13 14 14 19 38 31 22 20 22 15 26 56 51 50 47 46 52 55 57 59 62 64
68 58 50 39 33 27 21 16 14 13 12 12 14 13 20 32 24 14 17 14 20 28 28 25 33 40 46 49 50 56 56 60 56
56 38 30 25 21 19 15 13 15 15 12 11 12 13 20 29 23 13 21 16 30 25 23 23 18 35 46 46 54 57 60 57 54
28 22 21 19 17 14 13 12 14 22 15 12 12 16 27 32 23 11 25 16 26 16 21 21 15 18 40 47 53 55 52 51 51
21 21 20 18 15 14 14 12 13 17 20 23 22 19 25 27 24 16 22 13 25 18 26 14 21 21 34 39 42 47 50 50 54
22 21 19 16 14 13 14 16 16 18 29 33 49 53 31 30 14 19 16 28 20 17 16 22 27 28 37 36 42 48 47 50 51
22 20 18 16 14 16 18 20 20 24 24 35 28 40 51 52 27 21 29 22 29 26 24 29 32 35 38 34 40 45 48 49 52
20 20 18 17 17 17 19 20 20 23 29 24 25 30 36 51 55 34 28 33 33 30 30 33 36 37 38 37 42 50 46 50 55
19 18 17 17 18 18 18 19 20 22 26 29 33 35 31 33 62 44 47 36 32 32 35 37 36 38 37 42 42 45 50 53 57

GFSFLT1_925_rhum_024.txt.gz
RH
81 82 71 70 64 64 61 61 64 67 72 81 90 83 79 79 72 71 71 67 55 71 82 82 80 82 84 87 84 80 85 93 95
81 84 74 72 66 69 71 79 86 90 90 91 92 92 86 83 75 74 74 70 65 84 81 83 81 74 76 76 71 74 77 75 72
80 85 76 77 74 75 81 94 95 96 95 96 91 76 72 71 71 73 73 73 72 93 87 83 84 86 77 76 77 78 77 78 83
77 80 83 75 76 85 84 92 95 86 82 79 78 79 79 79 78 77 76 76 76 97 95 90 87 85 82 86 83 84 84 85 81
78 83 77 72 75 78 84 82 79 79 80 80 79 79 80 78 79 81 80 76 80 94 95 93 93 91 85 80 80 84 90 91 89
66 63 69 71 75 78 79 79 80 79 77 77 74 72 70 70 69 65 61 71 87 86 88 82 85 87 83 81 81 81 83 88 93
68 69 71 72 72 73 74 76 73 67 63 72 65 63 63 60 55 50 49 68 73 74 74 78 82 84 88 81 80 83 87 92 91
64 67 70 70 70 72 76 77 65 56 53 51 50 47 46 45 43 43 42 52 68 69 74 76 76 83 83 86 89 88 90 93 96
67 69 72 78 80 78 70 62 52 52 48 44 40 37 33 32 36 36 36 40 58 67 71 68 83 77 75 76 77 78 79 82 82
75 72 77 71 66 60 51 49 46 38 29 24 22 21 16 23 30 27 31 32 42 61 66 72 70 66 63 63 69 71 72 71 71
80 69 62 54 48 47 42 34 27 21 16 14 17 15 21 35 29 24 26 21 18 58 61 60 57 58 59 62 63 62 67 67 71
68 60 59 50 44 34 25 20 17 15 13 13 15 15 21 35 21 19 16 15 18 37 53 54 52 52 53 58 57 61 64 67 66
68 62 48 35 26 20 17 15 14 13 12 12 14 14 17 36 21 16 16 16 20 24 25 24 27 42 48 49 53 60 63 64 62
60 51 29 21 19 17 14 12 12 14 12 12 13 14 20 35 22 16 17 18 15 18 16 18 12 22 44 48 54 58 58 61 61
43 25 21 19 18 16 12 12 13 16 15 13 13 18 25 35 28 21 19 18 18 22 18 16 12 15 37 46 52 51 53 57 60
22 23 22 20 18 14 12 12 12 15 16 17 16 16 18 32 23 13 12 19 18 17 16 14 12 14 23 38 46 48 52 56 57
24 24 22 19 15 14 14 13 14 17 23 30 42 48 25 19 13 12 18 21 16 18 19 17 17 22 25 28 43 45 52 54 57
25 24 21 18 16 15 16 16 16 20 21 30 27 37 41 54 24 18 20 27 23 28 26 24 25 25 29 34 35 47 53 53 55
23 22 19 18 16 16 17 18 19 22 27 24 24 28 36 50 54 31 28 33 34 33 31 32 30 31 32 36 42 52 50 53 58
22 20 19 17 16 16 17 18 20 22 25 28 31 33 32 36 63 48 46 38 37 38 36 33 34 35 38 41 44 52 52 55 57

GFSFLT1_925_rhum_030.txt.gz
RH
79 85 72 59 64 75 79 82 77 75 76 88 92 84 85 76 73 75 76 79 69 90 87 80 84 84 88 86 83 86 84 84 88
85 83 74 68 68 74 82 90 90 90 92 96 90 76 69 80 74 75 77 79 72 94 93 90 82 84 82 78 80 87 77 75 78
84 85 77 74 75 84 88 97 97 93 89 88 84 81 79 77 73 76 78 81 73 80 95 94 94 89 88 88 85 79 80 80 81
76 79 80 76 83 87 87 91 90 87 85 81 78 77 75 79 70 79 74 76 74 77 89 94 92 90 90 90 88 91 91 88 89
88 82 80 81 83 83 87 86 82 79 79 74 72 69 67 67 71 68 71 68 83 86 85 86 88 88 90 90 79 79 82 90 90
78 88 73 78 78 79 78 76 74 71 65 63 65 62 60 59 59 61 59 75 78 78 83 83 83 89 96 95 96 94 93 89 89
68 76 70 72 73 76 74 77 66 56 54 52 51 50 48 50 53 59 54 72 73 78 75 91 89 86 87 87 88 90 92 92 90
66 70 70 75 75 76 73 67 51 52 50 47 43 40 41 42 40 58 44 62 76 75 84 86 80 76 75 78 82 82 83 83 83
66 66 75 72 66 70 64 49 45 40 35 34 28 26 31 29 32 49 37 43 66 73 80 75 73 72 71 75 76 76 78 80 81
70 72 65 69 66 59 47 41 34 30 25 25 24 23 29 26 30 38 30 38 71 70 69 70 68 67 67 70 70 70 72 74 75
72 68 70 61 54 51 38 32 25 22 20 22 24 21 28 24 31 30 43 33 54 65 64 60 58 58 59 60 61 63 66 67 70
72 69 66 57 52 37 31 26 23 22 21 20 23 23 27 25 26 30 28 27 21 39 50 49 48 47 50 52 55 58 61 65 66
74 68 57 48 38 28 26 26 26 23 22 21 22 24 24 27 26 29 28 29 27 28 18 15 13 24 43 47 52 57 60 63 62
71 61 50 32 28 28 24 27 25 23 23 21 19 24 29 31 27 26 30 31 31 30 31 20 21 30 43 49 53 56 58 60 61
62 51 33 28 28 26 25 25 27 27 25 23 21 31 35 31 29 29 24 28 31 31 34 31 23 27 37 46 50 55 58 61 62
66 35 29 29 28 26 24 25 27 28 27 23 20 24 26 29 33 31 24 29 28 29 25 22 23 23 30 35 47 56 56 60 62
42 32 30 28 27 26 26 26 27 28 29 22 26 21 18 21 26 25 26 20 25 24 24 26 27 27 28 32 46 49 55 60 63
26 28 30 30 29 30 29 30 27 25 31 28 17 19 21 20 20 23 22 24 22 24 29 30 28 28 30 34 37 46 57 60 62
26 29 30 30 29 30 29 29 28 25 26 29 26 25 23 22 22 21 22 23 25 27 30 30 29 31 31 35 42 48 55 60 64
29 30 29 29 29 29 29 30 28 28 24 27 28 26 28 26 26 27 21 22 24 28 31 32 32 30 32 35 40 48 57 63 66

GFSFLT1_925_rhum_033.txt.gz
RH
83 78 63 65 76 82 83 79 66 62 65 73 80 81 67 74 67 67 69 72 70 86 92 86 80 84 85 85 84 84 88 84 86
86 76 71 62 69 79 87 92 90 89 90 96 90 76 72 76 64 65 68 74 71 82 93 92 93 87 86 85 83 80 85 85 76
89 83 76 70 76 86 92 95 94 95 90 86 81 76 71 76 70 71 68 75 73 95 96 96 96 96 94 90 89 90 84 83 84
77 81 80 77 85 86 90 91 86 82 79 76 73 69 63 64 62 67 66 63 85 91 89 90 90 91 92 91 87 88 88 91 89
82 80 83 76 83 85 85 81 77 74 72 65 64 63 64 63 60 59 66 77 80 82 88 86 87 95 95 96 96 95 92 85 84
78 92 73 76 79 79 76 75 68 65 59 56 59 53 52 51 53 57 57 75 76 84 81 92 95 91 92 91 92 95 94 91 89
66 84 64 73 74 74 73 75 59 52 51 50 49 48 48 46 47 56 52 65 69 77 84 90 85 81 80 84 86 87 88 88 89
65 71 70 73 71 77 64 59 51 50 48 47 42 35 33 34 33 49 41 64 72 74 88 81 78 77 75 80 81 81 82 84 85
56 58 61 68 65 63 63 49 45 41 35 32 26 24 28 28 28 44 37 39 74 81 77 75 73 72 72 75 75 75 75 79 79
56 58 62 61 60 58 49 44 39 32 25 23 24 21 24 24 25 36 33 64 69 71 72 68 66 64 64 64 65 66 66 71 72
61 63 61 63 57 51 41 35 28 23 21 21 21 21 22 23 27 28 39 36 51 66 64 58 56 54 54 55 58 58 61 64 68
67 63 66 61 51 45 35 27 24 23 23 21 20 22 22 25 24 28 29 32 24 24 18 17 19 27 47 50 52 55 60 62 65
66 66 65 52 43 34 28 28 27 24 24 22 21 23 23 26 24 28 28 29 26 31 30 20 14 15 40 53 54 56 60 63 63
67 68 54 41 33 29 26 28 26 25 26 23 18 21 29 29 24 25 30 30 31 30 29 29 25 30 35 47 54 57 61 65 65
64 58 41 34 32 29 28 28 30 29 27 25 23 27 30 32 27 27 26 24 31 31 34 32 25 25 31 39 46 56 62 64 64
64 58 36 31 30 29 27 28 31 32 28 25 24 24 26 26 28 31 27 23 30 28 25 25 26 27 30 32 40 53 57 62 65
60 47 34 31 31 30 29 30 32 32 30 25 26 30 22 22 28 22 24 21 22 24 25 27 29 29 29 31 40 43 52 64 65
57 34 32 33 34 34 34 33 30 29 32 29 20 27 30 22 18 22 23 23 22 24 25 29 28 29 30 32 34 42 52 59 66
39 34 32 35 36 36 34 32 30 27 30 30 25 26 24 26 28 20 22 21 22 23 25 27 29 30 30 31 36 42 49 57 64
34 38 33 34 34 32 31 32 30 28 24 26 29 23 27 26 28 33 25 22 22 24 26 28 29 30 30 32 35 40 51 58 64

GFSFLT1_925_rhum_036.txt.gz
RH
87 67 64 72 83 84 85 82 74 65 70 77 75 62 59 70 65 68 69 74 71 84 94 94 87 82 82 86 87 88 87 90 83
88 73 64 72 81 90 95 97 89 83 84 84 76 72 70 70 71 69 72 77 72 92 94 89 96 97 92 88 89 90 84 84 87
92 78 67 69 79 86 88 88 85 81 80 76 73 68 61 62 71 71 64 66 87 93 94 92 93 94 95 91 92 92 92 91 87
94 84 72 70 79 80 83 82 78 76 75 69 65 63 62 67 63 66 65 65 84 88 92 90 94 97 96 97 96 96 94 90 84
87 82 75 72 79 79 77 75 71 68 64 61 60 56 56 56 59 62 62 74 81 88 87 93 96 95 94 95 97 97 97 97 97
81 87 72 70 74 76 74 73 65 59 55 51 50 50 49 49 52 54 54 68 77 81 97 94 90 86 86 91 91 92 92 93 94
86 85 69 69 71 73 73 72 53 53 56 51 46 46 46 42 44 46 46 76 80 83 91 85 82 80 84 85 85 85 87 89 90
79 64 59 67 69 69 62 56 51 51 49 45 34 28 30 31 30 38 41 41 66 90 84 81 78 76 80 80 79 78 79 83 84
63 63 65 74 76 67 62 48 45 39 33 28 26 23 26 28 26 33 38 51 81 83 78 74 71 70 71 71 71 71 70 74 76
58 62 67 64 62 60 50 44 38 32 25 22 23 22 22 25 25 31 33 41 70 76 71 66 63 60 59 59 61 61 63 64 69
57 63 63 60 61 52 44 39 34 23 22 21 21 21 21 24 25 29 34 32 47 64 58 53 51 53 54 54 56 56 62 64 67
60 64 60 62 53 45 40 36 24 24 23 22 21 21 22 24 24 27 30 28 26 22 18 16 22 33 47 53 58 60 62 64 67
65 63 62 61 49 36 33 27 26 24 24 23 21 21 23 24 25 25 28 29 29 31 31 28 23 25 42 47 58 60 65 68 71
67 62 63 53 39 33 29 25 24 25 25 22 19 19 23 28 28 26 28 29 28 28 30 30 26 37 34 41 49 55 65 69 71
67 65 59 44 33 30 26 26 26 25 24 24 23 25 26 32 27 27 27 24 25 27 28 27 25 25 35 40 44 51 60 64 68
66 60 48 42 34 28 27 29 31 28 22 24 24 25 25 25 29 29 30 25 26 27 27 25 24 27 31 34 38 46 52 60 70
62 57 43 34 30 28 27 29 30 31 24 23 27 42 30 24 23 30 24 22 20 23 23 24 25 28 29 29 38 41 48 56 64
60 43 36 33 29 29 30 29 29 31 30 22 24 38 42 29 21 24 23 23 22 23 22 24 26 27 29 29 31 36 46 53 60
50 43 40 33 32 31 32 30 25 27 29 30 26 23 25 38 42 23 21 20 23 23 24 24 25 27 29 30 31 38 44 50 58
46 43 34 34 34 34 29 28 26 23 25 26 28 25 26 27 36 48 33 23 23 24 25 27 27 27 29 30 31 36 45 52 58

GFSFLT1_925_rhum_039.txt.gz
RH
79 82 85 86 87 87 88 86 67 60 62 64 60 59 68 68 70 73 70 77 76 84 85 86 88 71 70 80 85 89 86 89 91
76 66 71 82 91 94 95 93 75 74 76 73 69 66 68 71 77 76 73 66 91 97 87 84 90 95 91 89 86 93 94 86 88
80 67 67 75 86 94 96 89 79 77 74 71 66 62 62 72 70 67 61 70 92 93 94 95 97 97 98 96 93 94 92 92 96
83 76 71 81 82 80 79 75 74 72 66 62 62 64 65 73 72 66 66 75 89 92 90 97 97 96 97 98 99 99 99 100 100
90 79 67 72 73 73 74 71 66 63 57 57 56 54 52 63 62 61 61 76 90 87 98 95 88 88 95 96 95 94 96 98 99
86 78 64 67 71 73 73 66 62 58 52 50 49 50 47 52 52 53 53 65 81 93 94 88 85 87 92 90 89 90 92 94 96
82 83 63 67 69 72 73 60 54 53 55 48 44 45 42 38 43 44 43 78 80 93 89 86 82 84 86 84 83 81 84 86 88
81 86 68 69 71 72 68 53 52 50 45 42 32 25 29 30 31 34 36 50 75 88 84 80 77 77 79 76 77 76 76 79 81
83 65 56 70 73 66 58 50 46 40 36 26 26 22 27 28 27 30 34 54 86 85 78 73 72 68 66 66 66 66 66 68 73
67 60 65 75 77 67 52 45 40 36 26 22 22 22 22 25 25 31 33 37 76 76 70 65 59 58 59 59 60 61 66 67 68
56 63 71 68 64 57 49 44 38 28 23 21 21 20 21 24 24 30 31 33 48 58 58 55 53 52 53 56 62 64 65 68 71
58 66 67 63 62 50 42 38 31 24 23 22 21 21 21 23 25 27 30 28 26 26 30 37 42 43 48 51 60 64 67 71 73
61 64 64 60 58 45 41 34 26 23 23 22 21 21 23 24 25 27 29 28 28 28 29 27 32 44 44 47 54 58 66 72 74
60 63 63 61 52 39 38 30 25 24 24 22 20 20 22 26 27 26 28 29 28 25 24 25 25 32 40 44 50 53 60 67 71
63 65 63 60 47 38 34 25 25 26 25 24 24 25 25 29 30 26 27 27 26 26 26 26 25 24 27 40 45 47 54 61 68
66 67 63 53 47 41 28 27 29 27 25 25 24 28 26 26 27 28 29 29 25 26 26 25 24 23 24 26 36 44 50 57 62
69 68 59 47 39 31 27 28 30 30 24 23 31 40 30 24 24 28 31 24 22 22 24 23 23 25 26 27 32 37 44 50 58
73 67 56 44 37 29 27 29 30 32 27 21 24 39 40 33 24 30 26 24 23 24 24 25 25 26 27 28 28 29 42 46 54
73 61 44 39 31 28 29 30 30 29 30 26 23 20 22 34 30 25 24 22 24 23 23 23 25 28 27 27 27 29 40 44 53
68 44 40 37 36 34 32 30 27 28 28 28 27 26 26 27 38 44 34 24 22 21 24 26 24 28 30 30 31 32 40 46 50

GFSFLT1_925_rhum_042.txt.gz
RH
79 82 86 91 90 91 92 84 60 52 51 57 58 69 73 72 72 67 74 74 82 84 81 84 85 82 68 76 88 90 88 87 88
85 88 89 91 91 92 94 86 68 67 71 70 70 71 73 72 74 78 82 79 95 93 86 88 94 96 89 86 81 94 95 92 87
85 89 92 95 96 96 95 82 73 72 70 67 66 66 72 69 73 74 79 72 92 94 95 96 97 98 98 99 99 100 99 94 95
85 81 87 95 96 95 86 78 75 70 64 64 65 66 66 72 70 72 75 78 92 89 98 96 92 88 96 96 95 97 98 100 99
78 71 81 86 82 79 76 74 70 62 61 59 54 52 59 70 66 65 70 92 87 97 97 91 90 89 92 94 94 92 95 98 98
86 74 68 73 73 74 72 68 63 54 51 51 50 49 51 55 55 54 57 79 88 94 90 87 87 88 90 89 87 87 89 90 94
87 77 64 70 73 74 73 63 58 57 52 50 45 45 44 46 47 46 54 72 94 89 89 84 85 87 85 81 80 79 82 85 87
86 80 66 72 74 75 75 55 53 52 50 44 33 27 31 33 33 34 35 58 90 86 84 79 76 76 74 75 73 71 71 75 78
82 80 75 67 71 73 66 54 50 42 36 30 25 23 26 29 29 30 33 76 88 82 76 72 68 64 62 63 64 66 69 69 70
83 83 76 66 72 67 58 50 44 38 31 23 22 22 23 26 28 29 32 50 83 75 69 62 61 60 60 62 65 67 68 72 73
82 76 59 71 76 69 56 47 40 33 24 21 21 21 21 24 27 30 31 39 56 64 58 54 53 53 54 58 65 67 70 74 76
74 69 63 72 78 66 51 41 37 29 23 21 21 22 22 24 27 29 29 29 28 29 44 45 49 50 50 54 59 62 70 74 76
65 61 67 72 68 56 48 39 34 25 23 22 22 22 23 23 26 28 28 28 27 27 27 26 35 44 49 50 56 59 64 69 74
56 58 63 68 60 49 43 39 30 24 24 23 20 20 22 25 26 28 28 28 28 24 25 24 23 23 32 43 50 53 56 64 68
54 59 67 64 56 50 43 39 28 25 26 25 24 24 26 29 27 27 29 28 26 26 26 24 23 23 22 27 40 48 51 57 63
55 62 65 61 58 53 41 31 25 27 27 26 27 30 27 29 29 27 28 28 28 28 25 25 24 23 24 25 28 42 46 52 56
63 63 64 63 56 44 40 31 29 29 26 26 32 37 30 26 26 29 31 30 26 24 26 25 25 26 26 28 31 31 39 46 53
66 65 66 63 54 47 39 28 29 32 26 24 28 45 42 33 24 28 33 26 24 26 25 25 24 26 28 28 28 28 38 45 51
71 70 68 63 54 46 36 28 30 32 30 24 22 21 22 32 27 26 29 24 24 23 22 22 26 24 28 30 30 33 47 46 50
77 74 68 59 50 42 34 32 34 32 32 30 26 24 25 25 34 35 32 26 24 22 24 25 25 30 31 29 33 54 53 54 55

GFSFLT1_925_rhum_045.txt.gz
RH
81 88 92 93 96 94 87 78 65 47 54 59 72 74 76 76 73 75 80 90 89 85 81 84 86 87 75 79 94 90 92 88 88
83 88 93 92 91 91 86 64 60 64 70 74 76 75 74 75 74 82 90 91 82 96 93 92 96 96 93 89 93 90 86 90 90
88 91 92 93 94 95 95 82 75 73 73 73 70 66 68 72 79 81 82 82 92 91 97 98 97 97 98 97 100 99 96 98 96
91 89 95 96 96 94 94 82 74 71 68 67 67 70 73 71 70 76 81 87 86 96 96 92 88 86 91 94 94 96 95 94 91
72 74 88 96 93 91 83 80 76 70 65 60 56 56 69 71 70 70 86 79 95 96 94 89 89 88 89 92 92 90 92 92 96
73 63 79 88 86 82 80 75 70 59 55 52 51 55 61 61 59 60 73 87 95 93 89 87 84 86 88 86 85 88 89 90 92
81 70 68 76 78 80 76 70 62 54 52 49 46 47 50 52 53 67 71 81 91 88 87 86 88 86 81 81 79 80 82 83 84
92 81 70 77 80 80 76 62 57 57 53 46 40 33 38 40 38 36 38 87 85 81 82 78 76 75 72 70 68 70 72 72 73
87 87 71 74 76 78 76 56 53 50 44 38 31 25 28 31 31 33 49 89 84 82 76 70 67 66 65 67 68 70 73 75 76
86 88 81 69 75 77 72 56 50 40 33 26 24 23 24 28 29 30 37 77 82 75 67 65 62 60 60 65 70 71 73 76 78
87 85 87 74 73 73 64 54 45 37 29 22 21 21 22 26 28 29 33 48 66 67 61 55 55 54 55 60 65 68 74 78 79
84 83 87 71 73 75 66 52 41 33 28 22 21 21 22 24 29 29 31 34 37 45 51 50 51 52 53 58 61 64 70 74 77
74 80 84 64 76 82 65 46 37 32 25 22 22 22 23 23 27 30 29 28 27 30 28 26 33 46 46 49 53 59 62 65 70
70 74 79 68 76 82 61 45 37 33 25 24 21 22 24 24 26 30 29 29 28 26 25 24 23 22 31 42 47 50 56 60 65
66 71 72 71 76 70 49 41 36 31 25 25 24 23 26 27 28 29 30 29 28 26 27 25 24 23 23 31 38 47 48 53 61
65 66 62 66 72 64 48 38 38 29 27 27 29 30 29 31 29 28 30 30 29 28 28 26 25 24 25 25 32 45 44 48 52
68 67 60 63 69 58 45 43 35 27 28 29 33 42 33 30 31 31 30 30 31 29 28 26 25 25 25 26 29 38 46 45 51
71 66 59 64 67 58 50 44 41 30 28 28 33 50 47 36 26 28 33 32 27 26 26 26 24 25 25 25 27 29 33 54 53
74 71 62 64 66 59 52 47 40 30 30 27 26 26 28 38 30 28 33 28 26 26 24 23 25 24 27 30 30 54 58 57 58
77 75 73 70 66 60 57 48 37 32 33 30 26 25 24 24 32 34 33 30 27 25 24 26 25 28 31 30 31 51 60 62 63

GFSFLT1_925_rhum_048.txt.gz
RH
84 88 79 83 88 90 80 74 63 50 80 84 77 73 75 74 72 76 90 92 94 95 85 88 94 92 81 90 93 91 93 88 90
88 94 88 90 92 88 79 65 62 70 86 82 74 74 73 72 75 82 87 92 90 96 96 96 99 99 97 95 98 98 89 92 87
89 94 94 95 95 92 84 77 81 84 84 74 71 71 71 75 78 82 89 84 90 93 96 97 96 93 92 97 99 98 99 99 99
91 93 95 95 95 97 95 94 90 87 75 69 68 72 74 72 73 81 84 83 92 95 93 89 90 89 89 88 90 89 90 94 95
88 82 93 95 92 89 92 89 78 68 65 63 59 66 73 72 75 77 81 90 94 92 90 89 84 89 89 90 91 90 90 93 92
69 70 85 90 88 87 84 87 71 63 57 55 58 66 71 66 66 78 87 94 92 91 89 88 84 85 86 84 85 87 88 89 90
66 63 78 88 87 86 82 80 63 55 52 50 52 53 55 56 59 70 68 94 89 89 88 89 88 84 81 76 75 76 78 79 79
84 75 74 84 88 87 84 77 64 56 52 48 43 42 46 47 44 43 76 92 85 85 82 80 77 73 71 70 72 74 76 77 76
92 88 75 79 83 85 81 68 58 56 51 42 36 29 32 34 32 35 50 91 85 82 75 70 69 68 69 71 72 73 76 78 80
84 90 86 72 81 82 81 64 55 48 41 35 26 24 26 29 30 31 70 90 84 76 69 67 63 61 64 69 72 74 78 81 82
79 85 89 77 75 79 80 64 53 41 36 32 23 22 23 27 29 30 50 71 73 69 64 58 57 56 58 63 65 69 78 78 79
82 83 88 84 77 78 76 62 48 38 33 27 22 21 23 26 29 32 37 50 55 59 54 55 53 51 58 58 61 65 68 70 75
78 86 86 84 88 78 75 63 49 35 32 26 22 22 23 26 30 32 34 34 33 38 36 29 46 50 47 50 55 56 60 62 68
76 80 82 85 89 77 81 66 47 36 32 25 23 24 24 24 28 31 32 29 29 30 26 25 24 24 36 43 46 50 56 55 61
74 74 75 82 90 78 86 67 42 38 32 25 23 23 25 26 26 31 31 30 29 27 27 25 23 23 23 35 42 47 51 51 55
57 63 70 78 88 72 82 64 42 36 30 27 29 28 29 29 29 32 32 31 30 28 28 26 25 24 24 24 24 46 54 51 53
65 58 66 76 85 76 79 61 40 35 30 29 34 43 35 33 32 30 31 31 31 30 29 28 25 24 24 23 23 24 34 54 55
79 68 69 72 77 74 75 56 45 38 32 30 35 53 50 39 32 32 34 32 32 32 30 27 25 24 23 23 24 28 46 57 58
83 79 78 73 73 71 71 58 48 47 37 33 31 32 34 43 36 30 34 35 30 28 27 26 24 24 24 27 29 41 58 64 67
85 83 86 83 75 68 70 61 54 55 54 44 33 29 27 25 33 36 36 33 29 28 27 26 25 26 28 30 29 44 64 63 63

GFSFLT1_925_rhum_051.txt.gz
RH
84 82 80 82 82 86 75 75 67 71 88 88 72 73 72 70 73 87 90 91 97 95 91 92 93 90 90 96 95 86 95 89 88
88 80 81 89 86 83 76 62 59 72 89 80 72 73 72 71 77 85 95 94 93 95 97 97 98 99 99 99 99 98 98 94 92
93 90 88 85 82 79 78 86 93 88 75 72 73 72 73 76 78 84 88 89 87 94 95 92 94 89 89 95 96 97 99 100 99
94 97 95 96 95 91 92 93 90 79 71 66 66 71 74 74 75 84 83 91 94 93 92 90 91 91 91 92 92 92 92 94 99
89 91 92 95 93 88 88 89 85 70 66 65 69 74 72 73 76 85 86 94 89 88 90 88 91 91 90 91 91 91 91 93 94
89 86 91 92 86 85 87 89 75 64 59 60 61 72 73 71 74 81 84 93 91 91 91 88 88 87 84 85 86 86 86 86 85
68 76 84 87 85 83 85 86 68 57 54 57 60 62 62 61 62 81 84 91 91 89 91 91 86 82 77 76 77 76 77 77 78
72 67 85 88 87 86 89 78 62 55 52 48 48 49 51 54 64 62 86 91 88 84 84 80 77 73 73 74 75 78 79 80 80
82 77 70 82 88 86 85 77 66 60 54 46 43 37 35 39 37 36 91 88 87 80 74 72 71 70 72 75 76 78 80 82 81
85 89 82 73 82 86 83 74 59 55 51 42 33 28 29 31 33 47 86 89 85 74 72 68 63 64 69 72 73 78 80 81 80
81 87 93 86 75 82 82 78 60 52 43 37 28 24 26 29 31 35 86 88 76 71 66 60 57 58 63 65 69 74 75 76 80
78 76 82 90 76 80 83 81 59 47 39 33 27 23 24 27 29 35 56 74 63 64 58 59 55 56 58 58 62 65 66 67 72
79 77 80 85 89 79 82 78 60 44 37 33 27 22 23 26 30 34 40 46 51 52 52 42 52 50 49 52 55 55 60 61 65
78 78 78 83 91 91 82 76 60 45 36 32 26 23 23 26 30 33 36 37 34 36 31 26 31 26 35 44 48 51 56 55 58
76 82 77 84 91 94 88 80 64 48 37 31 26 25 25 25 27 32 36 33 30 31 26 25 22 21 21 27 39 48 53 56 55
73 74 78 80 92 93 92 82 64 44 36 30 28 28 28 29 29 31 35 33 31 29 27 27 24 23 23 22 22 24 58 56 57
83 77 75 76 85 90 95 82 64 42 37 35 40 39 37 34 31 33 36 34 32 31 29 28 27 25 24 23 22 21 24 55 59
88 83 80 70 80 81 91 83 76 48 37 32 36 47 43 38 36 34 32 33 33 32 31 30 28 25 24 22 23 28 49 66 66
94 90 86 77 68 78 82 86 77 61 43 35 33 39 40 50 37 33 36 36 34 32 33 31 27 26 24 24 26 31 35 65 67
100 97 90 84 74 72 76 84 74 63 54 48 65 63 38 37 44 42 40 36 35 33 32 28 27 26 26 27 28 31 53 66 67

GFSFLT1_925_rhum_054.txt.gz
RH
96 82 86 91 91 89 85 75 70 86 91 92 75 71 69 71 72 77 85 87 94 96 93 85 89 90 96 93 92 92 86 89 90
93 83 83 84 87 84 78 75 71 68 82 76 73 70 69 68 74 75 81 88 96 98 96 98 99 99 99 99 99 98 98 94 92
94 83 81 86 84 87 88 88 89 83 82 75 73 71 72 71 70 71 73 86 90 92 94 90 94 95 96 95 95 97 100 99 99
90 84 82 90 87 92 95 93 92 79 73 70 70 72 74 67 69 66 70 92 92 89 90 91 92 92 93 92 93 94 96 99 99
88 83 84 94 95 91 88 88 83 73 68 67 72 75 71 71 73 66 87 91 87 86 87 90 91 91 91 91 91 91 92 90 91
85 78 84 85 83 83 84 86 72 64 62 62 70 72 68 67 66 64 84 91 90 92 90 91 89 85 85 84 85 84 84 84 84
69 81 91 86 82 81 85 83 67 60 65 68 67 62 64 60 62 67 88 91 90 91 91 88 84 78 77 78 78 79 79 79 82
72 75 84 83 81 82 87 84 60 52 50 58 55 57 57 54 57 62 88 93 87 86 84 82 76 74 76 76 78 80 81 82 82
65 64 70 73 76 76 76 72 64 54 49 48 51 53 48 43 48 54 92 92 84 80 76 74 73 73 76 77 78 81 83 82 81
70 69 67 69 71 72 75 71 62 54 46 44 46 42 38 40 44 48 92 89 83 74 74 70 66 69 73 73 76 81 80 81 82
72 74 74 72 72 73 73 68 57 48 42 38 38 37 36 39 43 50 81 89 79 74 70 63 60 62 67 68 72 76 74 75 78
74 73 76 78 77 72 74 70 59 48 40 36 33 36 35 38 42 50 58 79 75 69 62 60 58 60 62 61 65 66 64 65 70
74 74 75 76 80 78 74 70 60 50 42 37 33 33 37 38 40 51 54 56 53 60 61 56 53 56 52 56 56 56 60 60 63
75 73 74 77 81 85 77 70 61 52 44 39 35 33 34 39 41 45 52 52 48 46 51 35 52 41 45 48 49 52 56 57 57
81 74 74 75 81 87 82 70 61 54 47 36 33 35 32 34 40 40 48 47 49 46 45 41 38 23 23 29 41 48 54 59 58
88 82 76 76 77 85 84 75 63 56 48 38 39 38 36 35 34 41 43 44 45 44 45 40 35 28 21 21 22 23 43 56 57
90 92 80 79 79 79 88 79 67 60 49 46 43 43 37 35 35 37 39 39 41 39 39 37 35 34 32 35 22 21 21 51 61
93 98 91 87 84 81 87 84 71 62 53 46 48 50 51 36 38 38 40 38 39 38 38 37 36 35 34 31 31 23 25 38 64
99 100 98 95 95 87 85 88 78 69 58 50 44 42 41 41 47 41 40 39 39 41 42 37 38 38 38 38 38 34 28 46 66
99 99 99 100 100 96 91 89 81 76 67 60 53 48 50 45 45 48 46 50 44 39 41 38 37 39 42 44 47 29 27 58 66

GFSFLT1_925_rhum_057.txt.gz
RH
93 89 92 91 96 89 76 71 84 87 83 83 71 68 66 67 65 80 87 92 94 96 93 94 88 96 93 91 89 89 86 91 92
96 86 88 88 85 78 73 63 80 79 85 77 72 69 68 67 67 77 85 96 97 97 99 96 99 99 99 99 98 99 96 88 90
86 89 84 86 86 82 78 77 81 83 80 73 71 68 67 60 59 68 81 92 92 86 92 92 92 98 97 96 94 97 98 99 100
88 84 82 86 86 86 85 93 86 78 74 70 70 66 69 62 60 64 83 91 92 87 88 89 92 92 92 90 93 96 99 100 100
90 83 77 83 83 81 85 87 81 74 69 65 65 68 65 61 62 74 89 88 91 87 91 90 90 91 91 91 91 89 87 89 92
64 76 71 72 70 76 81 83 71 65 63 65 70 67 62 59 57 73 79 89 90 91 92 91 87 86 84 84 83 82 82 83 84
60 78 68 76 80 78 81 80 68 62 69 66 64 63 57 54 56 83 77 90 90 91 92 89 80 79 79 79 80 81 81 82 82
66 78 83 82 80 85 88 84 68 54 53 59 55 52 52 48 52 72 82 92 88 89 86 81 77 77 77 79 81 83 83 81 81
59 60 70 72 74 76 76 74 60 53 48 48 49 52 48 42 46 58 83 92 84 81 79 76 75 77 78 79 81 83 82 82 84
55 54 58 62 62 66 62 63 60 56 48 44 46 46 41 36 40 53 84 90 80 75 75 72 70 74 75 76 81 80 80 81 82
59 59 56 57 60 60 61 62 59 53 47 43 43 41 35 34 38 50 90 87 81 74 73 67 65 69 70 72 76 75 72 74 76
62 62 62 63 61 62 61 61 58 50 45 41 38 39 35 35 37 44 73 86 82 73 68 63 61 63 66 66 68 67 64 64 68
63 64 63 63 64 66 63 63 61 53 46 42 38 36 36 35 35 43 49 69 70 71 64 63 57 62 57 57 60 59 60 58 61
66 65 65 63 64 68 68 65 62 56 50 44 38 35 38 36 35 41 48 50 50 57 58 54 55 56 51 55 53 54 56 56 58
69 68 65 64 65 71 76 68 65 57 52 45 39 38 36 36 36 39 43 47 50 46 50 46 46 41 37 46 48 50 53 58 61
73 74 71 67 66 68 77 74 68 61 53 47 38 39 38 35 35 38 41 46 49 47 44 43 40 36 25 25 27 27 36 46 56
77 79 78 70 70 69 77 78 72 64 56 48 47 54 43 39 36 34 40 42 45 44 42 44 38 34 31 26 23 22 21 26 59
83 82 83 82 74 73 73 80 76 69 59 50 52 62 61 43 38 36 38 38 41 41 40 40 37 34 35 36 33 25 22 24 53
96 88 87 88 84 79 77 78 83 73 64 56 54 52 45 54 52 40 38 39 39 40 38 37 36 35 36 36 41 48 34 25 58
96 96 93 94 94 90 86 81 84 81 69 61 58 52 44 46 53 54 46 42 39 39 42 40 38 37 37 41 39 38 28 32 55

GFSFLT1_925_rhum_060.txt.gz
RH
90 92 81 89 92 80 73 76 87 91 91 72 63 64 66 79 74 83 84 87 98 97 97 93 99 100 99 98 99 86 93 96 86
92 90 92 92 84 77 69 64 79 79 75 69 64 65 67 75 73 78 80 95 95 96 97 88 99 100 99 100 99 100 96 97 89
90 87 87 87 81 72 67 60 67 71 69 67 63 62 66 69 61 61 76 89 90 88 92 93 94 97 94 97 96 94 94 97 97
96 87 85 86 81 76 71 75 75 70 67 67 64 64 66 60 70 75 74 89 91 88 92 91 91 92 93 94 95 97 99 99 99
93 84 82 81 77 76 79 79 71 66 63 61 63 61 65 62 70 75 82 91 90 92 91 91 91 91 90 90 88 89 90 92 93
61 79 75 77 70 66 79 73 65 63 60 60 61 60 63 61 74 76 74 85 92 93 92 89 88 86 85 84 83 84 84 86 87
65 66 74 64 66 78 79 76 65 59 57 58 61 60 59 57 63 74 71 84 90 92 93 84 82 81 81 83 83 83 84 82 85
62 71 67 65 81 83 82 79 68 62 68 57 53 58 53 51 56 66 69 85 90 90 89 81 80 80 81 83 85 84 81 83 86
65 72 65 70 79 83 79 73 68 54 50 56 55 52 53 47 52 55 55 81 87 83 83 79 79 80 80 82 85 83 82 86 85
59 62 66 70 77 68 79 77 68 57 51 47 49 50 50 41 42 51 54 74 82 80 78 76 76 78 78 82 82 81 82 82 85
57 55 58 64 66 68 67 66 64 60 54 47 46 46 43 35 38 49 64 78 83 76 76 73 72 75 75 79 79 75 75 73 78
60 58 57 56 59 61 62 62 63 60 54 47 43 42 39 34 36 49 69 78 81 77 75 68 67 70 70 73 74 68 65 66 67
63 62 61 62 61 60 61 62 62 58 50 45 42 39 39 35 35 40 69 72 73 80 74 66 65 64 68 65 67 64 56 47 53
66 64 65 64 65 65 64 64 64 62 53 47 42 38 37 36 35 38 48 71 65 66 70 59 60 63 61 60 61 60 58 42 42
68 67 66 66 65 66 68 68 66 64 59 50 44 39 36 38 36 36 42 50 59 58 53 52 49 55 55 58 57 56 57 54 49
72 69 68 66 65 65 68 69 71 67 60 54 46 40 37 36 37 36 39 45 49 49 52 49 47 46 41 51 53 54 53 58 46
74 76 72 72 69 68 68 74 74 72 63 53 45 61 47 40 36 36 38 40 46 47 47 47 42 37 37 36 46 37 35 34 49
86 81 80 82 78 74 72 76 82 79 68 57 50 80 77 52 40 37 36 39 44 45 45 46 44 40 37 31 26 23 23 40 59
77 75 89 85 85 79 77 76 82 84 75 64 52 53 53 63 55 41 36 37 41 44 44 44 44 42 34 34 35 34 28 26 52
78 83 79 82 88 85 86 82 84 88 85 72 61 61 61 46 62 63 47 39 38 40 43 41 41 39 36 36 36 37 44 51 59

GFSFLT1_925_rhum_063.txt.gz
RH
97 90 80 90 85 68 68 61 74 68 59 56 66 70 68 81 72 77 87 93 96 97 98 98 98 99 93 95 95 96 96 92 88
97 84 92 91 84 67 58 55 62 65 62 58 67 69 72 80 71 80 86 92 94 98 90 97 98 98 98 94 96 97 98 95 92
94 90 91 84 76 71 64 60 67 64 62 57 66 68 72 78 65 70 75 86 92 92 94 92 94 96 96 94 90 92 94 97 97
95 89 87 84 78 72 61 57 60 60 60 56 60 67 70 77 70 70 76 86 91 94 92 92 92 93 94 95 98 97 95 96 97
84 85 84 84 76 69 61 55 60 60 60 58 61 66 72 79 72 73 77 90 92 92 92 92 92 92 91 89 91 92 94 96 96
77 77 80 79 74 67 64 59 59 60 56 53 57 65 65 76 72 74 75 89 92 93 91 90 88 88 86 85 86 87 89 89 89
52 72 75 74 70 68 71 68 62 57 54 55 56 63 63 69 70 73 71 87 91 94 87 85 82 83 84 85 85 86 85 86 85
59 62 70 64 66 77 80 77 64 59 59 54 57 60 59 70 60 65 70 81 91 94 84 82 81 83 85 85 85 83 85 87 85
65 66 67 50 63 73 77 74 68 59 61 62 53 55 54 51 57 56 58 63 90 90 84 81 81 82 83 86 85 83 86 86 87
60 61 66 54 59 69 70 74 72 54 55 57 56 55 52 51 51 52 52 56 78 85 84 81 81 81 82 86 83 84 84 86 87
57 59 62 63 66 72 70 72 75 62 56 51 48 50 50 49 41 45 46 54 66 80 81 78 79 79 79 85 81 80 82 82 86
58 57 57 60 62 69 70 71 76 74 59 56 47 46 47 43 37 40 46 60 72 76 79 77 74 78 78 82 78 74 72 71 76
63 60 58 57 60 63 68 68 69 65 62 58 51 45 44 39 35 37 48 62 72 75 79 76 71 74 74 76 76 70 67 67 67
65 64 63 61 61 58 59 60 64 64 63 55 49 44 42 40 36 36 40 61 67 69 72 74 66 69 73 72 72 68 64 60 52
68 67 66 65 63 66 64 62 62 64 64 56 48 46 41 38 38 36 38 46 67 66 65 73 62 60 70 66 67 66 65 60 59
72 69 68 67 66 66 67 68 66 66 66 60 52 47 44 37 37 38 36 43 50 66 63 60 59 54 56 63 65 63 64 62 63
86 80 73 69 69 68 67 68 74 71 71 63 55 57 48 40 37 38 38 37 45 53 60 59 52 52 48 48 62 62 60 60 62
66 79 88 81 75 71 70 69 73 84 81 68 60 79 70 58 41 39 37 37 39 48 49 51 54 52 47 46 45 53 61 59 55
79 78 76 70 75 88 80 74 78 81 90 82 66 56 57 68 63 46 43 38 40 42 49 49 49 49 44 38 38 38 34 45 58
74 76 76 74 71 75 89 89 88 88 91 91 79 73 68 58 65 74 65 48 42 41 47 48 48 48 45 41 37 33 33 53 59

GFSFLT1_925_rhum_066.txt.gz
RH
93 85 90 90 72 72 54 45 50 48 64 70 72 83 84 82 82 89 94 90 97 97 87 99 98 97 92 96 98 97 94 86 96
98 88 88 86 72 68 41 40 52 53 61 69 70 76 81 80 81 81 86 96 96 98 88 92 96 91 95 96 98 97 94 91 95
100 90 90 84 70 64 42 40 55 56 59 68 70 74 79 77 73 74 74 84 95 94 92 90 93 98 97 91 87 91 98 98 97
96 92 91 80 72 64 47 44 51 55 56 65 68 71 76 70 67 69 74 85 94 92 94 94 94 94 92 94 93 90 89 90 89
89 90 90 86 79 70 56 51 53 54 53 60 68 69 70 72 72 72 79 90 95 92 92 92 93 94 92 94 94 96 96 96 96
73 83 87 88 84 77 68 61 58 56 54 56 66 70 74 77 75 74 77 89 95 94 92 92 91 90 89 89 90 91 92 92 90
68 76 82 80 78 76 76 68 66 62 55 53 63 68 69 72 77 75 73 86 94 94 89 88 86 86 86 87 88 88 88 86 87
65 77 80 78 76 67 83 73 67 59 54 55 60 66 64 67 74 72 72 82 94 94 87 85 84 85 86 87 87 86 88 86 89
70 64 63 62 62 62 73 72 67 57 60 53 57 62 61 64 68 67 66 67 89 94 86 84 83 86 86 87 85 85 89 88 89
68 66 66 64 53 56 65 73 74 66 60 59 54 57 57 55 59 62 62 61 66 90 87 83 84 84 85 87 86 86 88 88 89
68 66 64 64 58 49 61 67 72 72 58 53 56 56 56 55 53 52 54 56 57 69 88 83 82 83 84 87 85 85 85 88 88
72 63 62 59 59 63 69 71 74 79 68 59 53 49 50 52 50 47 48 48 55 62 81 83 81 82 82 86 84 83 83 84 86
74 63 61 60 58 61 66 72 74 76 79 74 60 54 47 48 48 43 43 50 50 63 72 80 80 81 81 82 83 78 76 75 79
71 65 61 61 59 59 64 68 72 73 74 75 62 57 52 47 45 40 38 46 54 57 68 73 76 76 80 78 80 77 73 72 70
67 66 66 65 62 61 62 63 64 67 67 68 65 59 52 47 44 42 38 41 49 60 62 70 74 69 71 77 77 77 72 68 65
75 72 72 72 69 66 64 65 63 64 66 70 66 57 50 46 43 41 40 38 41 57 67 69 70 72 65 66 75 73 73 69 65
70 68 70 74 74 73 70 69 71 73 73 74 66 68 58 50 49 44 39 39 37 41 64 73 68 68 66 59 66 68 71 70 68
75 71 70 75 84 81 76 74 74 81 83 83 75 77 76 62 49 49 42 39 39 39 45 64 71 65 62 58 56 59 67 66 64
80 79 81 83 86 75 73 78 81 85 92 95 84 76 64 75 74 48 46 45 45 43 42 50 58 67 61 57 53 54 61 66 63
78 88 81 76 73 74 79 80 86 94 98 96 92 91 88 72 79 78 66 54 50 48 45 44 52 56 59 63 57 62 59 63 61

GFSFLT1_925_rhum_072.txt.gz
RH
96 94 87 69 61 35 52 64 74 75 77 79 78 76 76 80 92 79 88 92 98 95 84 87 92 91 93 96 88 68 84 89 92
86 94 90 71 65 41 53 55 70 76 78 75 79 79 80 86 83 87 91 96 91 89 85 92 90 93 92 89 91 92 93 92 95
91 94 91 76 73 57 54 56 63 72 76 74 74 78 84 89 90 89 90 90 92 93 91 84 89 88 96 90 89 87 92 91 87
88 92 92 83 80 77 51 64 65 67 74 74 75 82 81 79 72 72 71 75 86 82 85 88 87 82 88 86 81 76 81 83 83
85 88 88 84 75 73 57 46 64 70 73 76 74 75 80 74 72 72 73 76 87 86 83 95 94 90 79 78 86 86 78 81 82
93 93 94 90 83 78 66 45 48 57 64 66 69 71 71 77 74 75 79 85 93 86 85 89 93 90 91 87 93 95 94 94 94
84 88 89 88 85 80 72 60 53 59 64 66 66 70 72 77 76 76 81 90 98 91 80 76 86 88 89 90 92 93 93 91 93
66 70 76 80 78 76 75 70 58 58 61 63 62 68 73 73 70 78 81 82 96 97 93 87 84 88 89 90 90 91 89 90 91
52 55 58 65 68 68 72 70 65 58 60 59 58 62 70 71 66 69 78 77 91 96 93 88 88 88 90 90 90 90 91 91 91
56 52 53 53 58 61 65 67 61 60 62 62 62 61 63 68 64 60 68 70 74 91 96 91 89 87 89 90 89 88 92 91 92
75 63 62 62 62 65 66 60 55 58 69 71 67 62 63 60 59 59 59 60 65 73 92 92 90 88 88 88 90 88 91 91 91
79 77 69 63 64 67 68 67 62 62 67 72 72 74 58 55 57 58 57 57 58 60 72 88 90 89 87 86 88 89 88 89 90
80 82 78 73 74 67 67 68 66 67 70 74 74 75 76 67 62 58 54 53 54 55 57 61 81 89 89 86 84 86 88 88 90
70 73 78 80 79 77 69 68 71 69 70 72 71 73 74 74 76 73 62 54 53 53 55 56 59 72 86 87 84 82 88 86 86
71 70 72 80 86 84 81 74 72 72 72 75 75 74 74 75 73 70 70 64 57 52 52 53 58 66 75 84 86 83 86 87 83
79 77 78 81 86 80 78 78 74 74 74 84 82 75 71 71 69 68 64 64 62 56 52 51 56 60 70 77 81 85 81 89 85
89 88 86 83 83 81 80 84 85 84 80 82 85 90 75 68 66 66 66 66 63 56 52 51 52 59 68 74 77 77 83 80 89
95 95 96 95 96 90 86 87 90 96 91 89 86 96 94 76 66 66 63 63 60 59 57 54 51 49 57 70 81 82 79 84 89
69 79 91 99 100 99 91 94 95 100 99 98 96 92 92 93 94 72 70 69 68 64 68 59 54 52 54 55 62 86 87 88 84
54 61 68 82 99 100 100 96 94 98 100 100 97 86 95 100 98 95 86 77 73 75 75 74 66 61 58 56 62 73 84 93 99

GFSFLT1_925_rhum_075.txt.gz
RH
93 94 73 68 41 49 62 67 72 79 80 78 76 76 77 88 80 86 85 97 97 94 84 95 88 98 95 95 80 68 88 90 93
92 94 79 72 52 57 57 70 72 77 76 77 78 78 85 82 84 88 95 97 88 94 87 75 95 94 95 92 92 92 92 94 95
94 96 84 75 65 50 70 77 80 78 74 72 77 78 85 85 89 91 92 87 93 91 87 88 88 89 97 95 88 88 89 89 94
82 91 86 76 70 55 54 61 65 73 74 73 76 80 82 80 72 73 76 77 92 86 75 80 82 78 88 86 86 84 83 82 79
87 89 87 81 76 78 57 62 65 64 69 70 70 70 73 74 72 72 72 76 83 75 70 80 76 57 59 64 69 71 75 74 73
90 92 91 88 82 81 73 59 64 65 62 64 70 70 70 73 75 72 75 81 91 82 71 72 80 75 74 69 77 73 77 85 91
86 89 88 87 84 82 78 69 62 62 62 62 62 66 70 72 76 74 76 81 97 91 80 68 66 73 74 83 91 91 91 93 94
69 72 77 83 83 77 74 72 68 60 64 63 60 59 67 73 74 70 77 80 95 98 90 81 75 77 83 88 89 90 89 91 91
51 54 57 64 69 71 70 70 70 66 61 63 60 58 59 65 71 68 70 76 80 94 97 89 81 88 89 90 90 90 85 90 91
64 52 50 50 55 58 62 64 64 60 62 63 65 61 60 59 65 66 61 66 73 78 94 97 93 90 90 90 90 88 92 90 91
72 70 61 61 60 63 67 67 66 58 58 60 66 69 68 63 61 59 58 60 64 68 76 91 93 91 90 90 90 90 90 91 92
72 79 77 66 65 68 69 70 71 67 62 60 65 69 72 74 63 57 58 60 57 59 64 87 90 91 89 88 89 91 90 91 91
73 77 80 79 78 78 76 71 70 71 69 67 68 69 73 74 77 77 72 64 60 55 56 60 76 88 89 87 86 87 91 89 88
76 75 73 76 82 84 83 82 76 72 73 70 70 70 72 72 72 74 74 74 76 69 60 55 59 66 81 86 84 84 88 92 89
76 77 77 77 78 81 85 85 83 82 83 80 78 74 70 68 69 68 68 66 67 72 66 58 55 58 64 80 86 83 84 93 91
85 84 81 80 81 80 82 89 88 88 81 94 84 77 68 62 60 63 67 67 70 72 69 63 57 53 56 67 72 86 84 86 95
97 95 93 92 92 89 85 87 91 88 84 89 88 82 73 67 65 65 63 65 64 64 64 63 59 54 53 56 62 70 87 83 84
97 97 99 99 100 99 99 95 96 100 93 94 91 92 86 77 67 64 66 67 67 65 63 61 62 61 57 54 59 75 79 88 85
64 71 79 93 99 99 100 100 100 100 98 93 94 94 95 96 90 75 70 71 72 73 73 74 74 71 64 59 60 64 75 86 92
51 54 57 62 73 98 96 99 100 100 98 99 97 98 96 98 99 96 88 77 72 69 68 77 80 80 79 75 71 68 70 80 97

GFSFLT1_925_rhum_078.txt.gz
RH
98 77 71 54 65 87 95 84 76 76 79 79 78 76 84 82 78 81 86 88 93 95 73 94 95 97 90 94 80 92 90 94 96
98 84 73 56 57 72 87 84 79 76 76 78 77 83 86 77 79 82 85 90 94 92 63 64 94 93 97 92 91 92 92 94 96
98 90 76 70 49 53 55 62 67 69 67 74 76 82 85 76 76 77 74 78 92 90 81 70 62 78 92 97 92 89 90 91 88
84 91 82 76 66 53 60 62 64 70 70 70 73 72 71 66 69 68 69 73 92 85 80 73 66 74 89 88 91 92 90 85 81
82 89 90 83 78 69 58 69 68 68 70 71 70 70 69 70 74 70 78 74 88 75 63 63 68 47 32 51 74 80 85 87 82
91 94 89 86 81 82 71 62 65 64 63 64 67 67 69 70 70 68 72 74 88 81 70 59 57 52 55 52 42 41 53 65 72
86 93 87 87 86 85 82 76 63 62 68 67 61 63 69 70 72 71 70 74 94 94 83 70 62 59 57 61 71 72 73 87 89
81 81 86 85 86 83 85 88 79 74 70 66 60 62 64 62 68 71 65 72 79 97 94 84 74 70 70 72 79 82 83 90 89
64 63 67 73 70 74 76 72 74 77 75 65 62 60 59 58 61 64 67 65 72 88 97 96 86 83 88 89 90 89 87 90 89
67 66 63 62 64 67 68 69 66 65 63 64 65 61 59 58 59 61 63 60 63 72 84 96 97 94 91 92 91 91 91 90 91
73 73 72 67 70 70 73 72 70 67 63 61 63 66 65 65 64 62 62 60 58 61 66 88 92 95 92 91 91 92 90 92 91
77 76 76 72 70 72 73 75 77 75 73 70 66 67 69 70 72 70 65 66 67 60 58 61 90 90 92 89 86 91 88 90 91
85 79 79 79 79 78 77 77 75 74 72 70 68 70 71 73 72 72 72 71 71 70 69 61 57 76 89 88 85 87 94 86 87
87 82 79 79 82 82 82 80 79 76 73 74 73 72 73 72 73 72 71 73 76 73 71 73 65 59 66 85 83 84 89 96 90
86 84 83 82 82 81 80 82 81 83 80 78 76 73 72 74 71 66 62 65 72 75 77 77 76 71 61 61 83 83 84 90 98
86 88 87 90 89 82 82 84 87 86 82 81 73 70 71 69 65 67 59 62 70 72 75 76 75 72 72 64 63 79 84 87 90
99 99 99 99 99 95 94 93 91 89 86 82 84 76 54 50 64 64 66 65 66 66 70 72 72 73 72 73 79 73 85 86 86
100 100 99 98 99 99 99 98 98 94 94 96 86 80 59 64 67 65 62 65 65 67 69 72 75 78 77 80 79 73 72 82 91
73 79 85 96 99 99 98 95 99 100 99 100 92 91 93 91 85 72 68 71 70 68 65 68 72 78 80 86 86 75 66 64 83
51 52 54 61 76 91 99 99 99 99 100 99 97 97 100 100 98 93 75 81 67 69 66 68 73 83 88 91 94 79 76 76 96

GFSFLT1_925_rhum_081.txt.gz
RH
78 66 43 54 85 96 93 94 86 84 92 79 74 76 73 71 71 86 80 82 94 85 81 99 98 97 97 92 93 93 94 95 95
82 69 51 46 59 69 72 74 69 70 73 73 78 81 76 68 73 71 75 90 89 82 76 76 87 96 96 97 90 93 93 96 95
89 77 67 49 65 74 74 70 70 67 70 71 76 77 74 63 64 66 78 77 89 81 60 37 29 48 86 90 97 95 94 93 93
86 84 77 72 58 65 64 66 69 69 67 69 68 68 64 60 63 58 74 73 88 74 51 44 34 33 55 81 84 85 88 95 95
81 89 84 78 76 57 58 60 59 63 66 66 65 63 62 66 65 63 70 68 77 68 59 50 43 34 26 32 60 76 79 83 84
85 90 87 83 79 79 67 57 57 57 56 56 61 60 65 59 61 61 69 68 77 75 68 60 53 45 40 45 59 60 70 80 78
78 88 85 86 82 80 79 71 58 48 65 63 59 61 56 59 61 64 69 65 76 90 80 74 63 56 58 60 63 70 74 86 84
78 79 86 88 81 86 81 82 82 65 62 56 54 54 55 53 57 61 66 62 67 93 95 84 78 68 65 72 81 77 70 85 79
56 56 59 64 63 62 65 61 62 66 66 57 53 51 53 51 51 55 60 62 61 68 95 97 89 83 76 85 89 87 82 82 82
55 55 54 53 53 55 56 59 56 56 54 53 54 53 52 51 52 55 57 58 56 58 65 92 97 96 91 91 94 93 90 91 90
60 62 63 58 59 60 63 63 62 60 57 54 53 54 57 58 58 59 58 60 60 56 58 63 89 93 96 94 89 89 92 91 92
66 68 67 66 61 62 63 66 68 67 67 64 62 59 59 62 62 65 66 63 66 67 65 61 62 81 90 93 91 89 86 82 84
75 72 72 72 70 70 69 68 68 67 66 64 62 63 66 66 65 66 67 68 68 69 71 70 68 63 91 89 90 90 94 96 87
77 74 72 71 72 73 74 72 71 70 67 67 69 70 68 67 66 66 66 67 70 74 72 72 72 73 67 84 86 87 89 92 99
77 76 75 73 73 74 74 73 74 74 74 76 74 72 71 68 68 67 64 57 56 68 72 75 77 75 75 71 84 87 85 88 92
77 78 77 77 79 76 75 73 77 79 81 82 78 74 70 67 66 63 60 57 60 68 70 73 73 71 70 71 72 72 94 91 89
85 86 87 87 87 87 88 85 86 87 85 83 80 85 63 50 48 59 60 62 63 65 66 68 68 71 72 73 74 76 79 91 93
97 96 96 95 94 95 93 90 91 93 89 86 89 80 69 56 58 62 61 60 62 66 67 70 71 74 77 80 82 82 82 78 74
83 87 90 92 98 97 95 96 93 91 98 92 81 83 86 85 78 62 64 64 69 65 66 59 63 72 80 87 93 88 80 76 75
53 54 57 68 78 90 94 96 95 96 99 98 95 88 87 96 99 91 76 72 73 63 68 78 79 84 88 88 80 78 78 79 94

GFSFLT1_925_rhum_084.txt.gz
RH
60 45 64 82 88 78 76 74 78 78 73 72 67 74 74 82 74 73 73 78 86 80 80 90 94 99 99 96 92 94 95 97 97
68 45 51 61 65 65 69 72 73 75 73 76 77 76 71 73 73 71 66 76 83 80 68 51 74 85 96 100 95 95 95 97 98
76 63 46 50 56 62 67 69 66 69 67 74 76 73 68 64 65 66 64 69 82 72 46 35 40 61 83 86 89 94 98 98 97
84 75 64 50 51 54 60 60 64 62 62 60 61 62 62 64 60 75 66 65 78 60 46 39 31 29 32 59 79 80 85 93 92
84 84 73 68 56 46 52 54 54 58 60 57 55 51 64 66 64 64 64 62 70 65 57 51 42 33 27 29 38 53 68 75 85
85 92 81 74 70 68 57 46 47 48 54 52 47 54 63 63 61 64 66 59 69 71 71 64 56 48 42 34 38 45 56 72 80
89 84 81 80 76 72 68 64 54 45 64 62 57 56 58 58 61 64 65 62 64 82 79 76 70 59 52 50 55 61 73 81 83
83 76 67 68 75 71 77 73 70 68 65 60 57 55 53 55 54 60 61 61 57 70 94 83 78 74 63 60 69 68 59 71 68
63 69 65 69 74 65 73 70 69 67 66 63 56 53 52 52 51 53 56 58 56 56 68 94 86 82 79 74 79 82 77 70 71
55 55 55 55 55 56 58 59 59 57 57 55 54 54 53 52 52 52 54 56 58 54 55 66 94 96 93 89 88 87 89 88 84
57 59 59 56 56 57 60 62 62 61 59 57 53 53 55 57 58 58 59 60 61 62 59 59 76 93 96 99 95 88 84 86 80
62 64 66 65 60 62 63 66 66 67 67 66 65 63 60 60 62 63 64 67 65 66 68 68 66 84 94 92 97 96 87 85 80
71 71 72 72 70 67 68 68 68 68 68 67 66 65 64 66 67 66 66 67 68 69 70 72 72 72 74 90 91 93 96 94 93
78 76 74 72 73 74 74 74 73 72 70 68 67 68 70 70 69 68 67 67 67 66 63 73 74 75 76 75 79 88 86 92 98
76 77 76 74 72 72 74 72 71 73 75 74 75 74 76 73 72 69 68 68 63 60 73 73 74 78 76 74 73 89 94 91 92
75 78 77 75 77 73 74 75 75 77 79 82 81 76 76 72 72 69 67 62 63 65 67 68 72 73 72 73 77 80 83 94 98
76 77 79 79 83 80 83 86 86 82 78 86 85 86 70 62 59 63 62 62 61 62 65 66 68 71 76 80 81 80 78 75 79
82 84 87 88 90 87 86 87 95 94 87 78 82 90 89 74 60 62 62 62 63 63 68 68 71 76 78 79 82 82 81 80 80
86 89 94 95 91 93 92 90 87 90 91 90 86 88 83 90 86 67 65 65 67 68 70 69 71 75 78 78 81 78 76 83 97
52 53 56 61 69 78 88 86 90 89 94 92 86 94 88 80 90 93 81 71 72 67 70 67 74 75 74 79 78 75 75 78 97

GFSFLT1_925_rhum_090.txt.gz
RH
92 95 95 96 99 95 92 68 68 73 74 74 73 83 78 74 70 46 58 73 80 80 95 94 97 90 94 97 97 97 97 97 98
94 89 79 80 85 94 77 68 68 71 75 77 77 73 76 73 67 54 52 71 82 79 81 93 96 98 93 93 97 96 98 97 97
74 54 64 66 63 62 61 62 70 70 76 76 71 72 75 70 68 67 52 58 75 73 68 70 69 84 92 94 92 97 96 95 94
46 56 62 64 60 55 51 52 59 71 74 74 66 67 68 67 70 67 61 56 59 59 52 48 38 38 44 42 53 65 77 88 90
51 48 54 55 52 50 51 50 49 48 52 56 56 64 69 71 71 71 67 62 56 60 59 56 50 44 36 33 34 52 72 83 85
70 62 56 49 46 43 44 44 44 44 44 44 45 59 66 65 68 70 69 67 60 57 66 67 63 57 51 47 44 45 63 83 81
79 74 69 66 65 63 60 54 43 46 59 58 55 58 58 58 61 68 69 67 66 61 64 70 72 71 64 59 56 55 58 58 62
83 76 72 71 67 64 70 70 62 63 64 60 58 56 56 54 56 56 64 65 65 68 69 70 78 79 77 72 66 63 61 57 53
83 75 66 64 69 68 74 71 73 72 69 66 62 56 55 54 53 53 53 56 59 61 64 77 85 86 86 82 79 76 73 67 62
72 68 69 65 67 68 68 67 65 64 65 64 63 61 56 55 55 55 54 55 58 60 62 65 81 94 93 98 95 88 81 78 74
61 64 63 61 60 59 58 59 62 64 64 62 60 58 57 56 57 59 60 60 61 64 68 67 68 73 83 94 95 94 94 86 84
59 58 58 59 58 58 59 62 67 69 69 69 68 68 68 67 65 62 65 66 66 66 69 70 71 71 70 77 89 88 93 94 95
60 60 62 67 68 64 63 65 67 68 70 72 71 68 64 62 67 70 72 71 67 70 69 71 73 72 75 82 92 95 94 91 94
65 64 64 72 74 74 70 72 75 76 75 75 72 69 72 70 70 75 75 75 74 68 70 71 74 80 78 77 81 98 96 88 95
71 71 74 76 74 70 73 76 78 78 77 76 71 68 67 70 67 65 69 76 76 72 69 79 81 76 76 75 74 76 79 84 88
75 76 78 78 74 77 77 79 80 80 80 78 68 66 62 60 60 63 68 70 77 71 75 69 67 70 72 72 72 72 74 80 97
76 79 80 78 75 79 82 80 82 79 68 73 72 90 75 65 67 65 63 75 71 67 65 66 66 66 65 66 70 68 64 61 77
80 82 80 77 71 72 74 78 84 79 71 72 77 91 90 85 67 69 67 68 67 68 70 75 71 72 69 66 68 68 67 67 72
75 76 81 83 78 77 84 89 88 90 88 84 80 81 96 93 86 71 73 73 75 77 80 80 78 81 79 73 69 68 68 88 95
72 83 86 84 84 80 73 76 81 82 84 90 86 80 78 79 90 89 82 87 87 85 83 83 84 81 77 80 76 68 68 96 96

GFSFLT1_925_rhum_093.txt.gz
RH
92 95 92 93 90 70 67 76 75 78 79 83 84 78 75 67 47 47 57 75 80 87 94 92 85 83 88 95 100 100 97 95 94
96 97 100 94 83 72 67 73 74 75 76 76 74 76 75 69 61 49 56 74 81 80 83 93 91 90 88 86 87 85 93 93 95
95 98 97 96 99 81 71 70 73 76 78 75 71 76 73 68 69 59 55 62 76 68 45 42 64 79 84 86 82 89 93 95 93
94 90 74 66 58 63 65 72 71 78 80 73 70 70 68 66 70 68 64 60 63 55 51 49 45 42 31 34 38 45 82 88 87
61 64 65 55 55 53 53 58 70 76 76 71 64 67 71 71 71 71 68 69 62 59 60 59 55 50 46 41 37 43 67 78 82
52 53 54 51 49 48 50 50 52 52 51 51 51 59 68 66 66 70 71 73 71 62 62 66 67 64 58 51 49 48 48 54 54
65 61 57 54 53 52 49 47 44 46 56 58 52 62 60 58 59 65 70 72 80 68 62 67 73 73 70 66 61 58 58 61 55
79 74 72 70 69 66 68 64 57 58 63 62 59 56 56 56 55 57 61 67 75 81 71 71 75 77 76 75 74 72 69 63 59
83 76 69 67 64 65 73 74 75 72 70 67 65 59 58 56 55 54 54 58 61 70 74 79 81 80 84 87 86 82 78 74 66
83 84 71 68 70 69 72 70 68 66 66 66 64 62 60 57 56 57 57 57 58 60 65 69 73 80 89 97 98 96 91 84 78
76 74 70 68 64 64 64 62 64 65 66 66 66 64 62 62 62 60 61 62 62 62 65 72 73 71 85 82 87 89 92 91 90
71 67 66 62 63 61 59 60 66 70 72 71 71 70 70 70 68 68 66 67 71 69 67 72 72 73 74 80 79 93 88 87 93
65 62 60 62 64 62 62 65 68 70 70 72 73 72 64 63 64 65 70 74 75 73 74 74 75 78 78 77 82 96 86 82 86
62 62 62 66 71 71 70 69 73 76 73 69 63 62 65 64 62 63 71 75 78 78 74 73 74 76 80 78 84 92 82 77 78
67 66 66 67 74 76 74 66 70 73 73 71 67 68 66 70 65 62 62 67 71 76 75 72 75 76 77 74 74 73 72 76 88
70 70 72 76 77 74 75 77 78 76 78 77 69 64 60 59 60 65 64 62 71 77 78 74 79 71 69 68 65 65 63 62 79
73 76 78 80 78 77 74 78 79 72 66 71 75 89 74 65 69 69 66 71 81 80 77 71 71 69 71 68 62 60 62 64 66
79 82 85 84 82 81 73 74 76 72 80 74 76 90 94 87 67 71 68 73 75 73 73 76 76 78 76 76 71 68 63 61 69
69 74 81 91 90 83 80 80 79 90 92 89 84 83 90 93 90 74 79 76 79 78 82 84 83 83 79 74 69 70 69 64 64
81 80 86 90 92 88 86 85 84 87 84 85 90 88 82 80 91 93 87 89 90 90 87 88 86 83 80 75 72 73 75 68 67

GFSFLT1_925_rhum_096.txt.gz
RH
92 95 96 93 97 98 87 82 84 87 83 80 78 75 65 50 47 48 57 68 81 89 90 86 91 93 92 91 87 87 92 92 93
96 92 86 90 95 90 80 77 83 83 82 77 79 76 69 64 54 53 55 71 79 77 75 88 88 75 80 93 93 94 94 93 91
97 96 95 95 89 74 77 77 81 81 78 73 80 77 67 68 65 63 59 64 74 62 48 45 55 45 40 45 56 84 86 90 87
99 100 100 100 98 78 76 76 79 81 78 71 73 72 68 69 70 69 69 70 74 60 56 55 52 46 40 36 42 72 80 81 86
98 97 98 84 72 73 76 77 79 82 80 70 68 69 71 72 72 72 72 75 77 63 63 64 62 56 51 48 52 56 74 74 77
77 69 62 63 60 59 59 61 66 68 65 59 55 60 69 66 64 70 72 73 83 70 65 68 68 67 64 61 57 54 52 51 51
57 58 55 54 51 50 49 50 50 49 52 55 54 63 62 59 56 63 70 72 86 79 72 68 68 71 71 72 71 68 66 56 50
68 64 64 61 62 61 58 54 47 48 60 62 60 58 58 56 56 56 59 64 70 94 85 74 70 72 79 83 82 79 76 71 62
80 77 76 74 71 68 72 72 69 67 69 67 65 62 59 58 57 56 56 57 59 64 80 83 76 76 92 95 95 91 88 83 75
83 83 77 72 69 70 75 75 73 71 70 68 66 63 61 60 58 58 59 61 61 61 64 71 75 80 82 83 86 90 93 94 90
84 83 78 72 69 72 72 70 68 68 67 68 68 69 68 68 68 69 67 64 66 68 65 66 74 77 77 81 85 88 84 85 94
83 77 73 69 70 69 67 64 64 68 73 72 72 72 72 69 65 63 63 66 69 73 77 71 74 77 76 72 78 74 76 75 79
77 76 68 66 67 66 63 64 66 70 71 72 73 71 64 62 61 62 64 67 64 73 74 73 76 77 79 74 84 95 77 71 72
71 70 64 63 66 70 68 68 70 76 75 65 62 58 59 61 67 70 68 65 65 72 77 77 73 76 78 79 79 88 73 64 66
68 66 65 66 70 75 77 76 72 66 62 63 68 70 65 62 61 60 62 64 66 72 77 80 79 80 82 75 69 64 61 62 61
68 68 68 69 69 74 77 77 75 73 74 78 69 65 61 62 63 66 67 66 68 76 82 85 83 83 70 70 69 71 65 62 62
69 73 71 72 76 78 76 74 70 69 68 69 74 89 72 70 70 70 68 67 76 86 90 89 83 77 72 70 71 67 65 70 75
74 75 76 82 82 78 75 73 70 75 76 72 77 84 93 89 74 79 76 75 72 80 81 80 78 78 75 73 69 66 64 66 90
89 85 86 74 63 74 80 84 79 81 85 90 91 88 90 90 86 86 86 84 80 81 83 84 82 80 79 77 72 68 66 66 80
100 100 100 80 86 87 94 91 94 91 92 89 88 89 91 95 98 95 92 91 91 89 88 88 88 86 81 77 77 76 75 97 86

GFSFLT1_925_rhum_099.txt.gz
RH
91 94 90 92 97 98 96 91 88 84 84 79 70 60 51 49 51 56 68 76 85 66 70 86 88 93 92 92 93 92 93 91 87
95 98 92 96 96 93 96 91 86 81 82 78 74 67 62 57 54 59 77 78 81 75 52 47 46 46 66 79 88 90 89 88 87
97 95 92 99 95 93 92 89 89 82 76 80 76 67 67 66 66 65 79 75 80 73 53 51 53 47 50 58 66 75 77 86 87
97 95 95 98 99 92 89 87 90 82 72 77 77 69 69 71 70 70 77 78 81 66 58 56 54 50 48 47 51 54 68 80 89
98 97 98 99 99 84 80 85 85 81 75 69 69 70 72 70 72 71 74 80 81 66 61 63 63 61 58 53 52 52 57 72 87
99 93 87 69 69 71 77 78 80 79 73 63 57 62 68 63 64 70 72 75 83 71 65 64 66 67 67 67 66 64 62 59 69
76 73 66 62 62 62 61 61 60 57 54 56 54 62 63 58 56 62 68 71 88 83 73 70 67 69 76 77 76 75 74 65 58
64 63 58 55 53 53 51 49 47 48 60 64 63 60 58 57 56 55 57 61 68 96 88 75 76 80 85 85 84 85 83 79 70
63 63 63 64 66 66 66 64 61 60 68 67 66 64 62 60 58 57 57 58 60 66 79 84 88 91 89 84 81 84 87 90 87
76 75 75 74 73 70 71 74 75 74 71 68 66 65 63 60 60 61 60 62 63 64 66 68 82 81 82 81 82 75 82 88 89
76 81 80 73 70 75 76 77 74 71 69 68 68 70 69 70 70 67 66 68 67 66 70 69 68 79 80 81 73 75 76 71 79
82 82 77 73 72 72 72 71 67 67 72 72 71 71 71 67 63 61 62 61 62 67 68 72 67 77 74 76 74 75 72 68 68
82 82 75 71 72 72 71 66 64 68 70 70 72 69 67 60 60 59 64 68 66 64 69 75 71 74 77 82 78 70 66 63 60
77 74 70 70 70 67 66 64 67 72 75 66 61 62 62 63 66 63 62 62 65 66 67 76 77 75 81 73 79 71 61 59 59
74 74 75 72 65 68 72 71 72 72 70 67 71 71 70 64 64 65 63 63 66 72 75 79 82 86 85 80 72 70 75 73 67
73 71 72 73 67 68 73 77 78 74 73 72 70 66 65 62 68 68 66 66 67 75 81 88 91 89 85 78 70 67 72 79 81
73 75 71 68 69 70 77 80 77 67 73 71 80 72 65 73 76 72 72 72 75 79 89 93 92 88 77 73 69 66 63 63 84
86 80 76 71 72 74 82 82 71 70 72 72 71 75 74 79 81 81 77 76 81 85 88 90 84 79 75 72 71 67 64 64 76
97 92 91 88 91 99 81 74 84 88 87 83 84 84 85 78 74 90 87 82 82 84 86 85 84 82 79 78 75 72 73 86 66
98 100 100 100 100 96 92 94 93 89 95 96 90 87 94 99 88 76 85 91 87 86 88 88 87 86 84 80 77 78 70 92 69

GFSFLT1_925_rhum_102.txt.gz
RH
89 83 83 82 82 85 89 86 83 86 83 68 53 49 54 62 61 62 66 64 81 87 84 77 80 80 89 92 89 90 87 87 90
93 85 86 85 87 88 90 87 85 87 84 73 64 59 65 61 63 65 65 72 81 77 54 48 50 61 78 84 88 87 86 87 90
95 88 92 92 87 88 89 87 80 78 84 75 66 65 68 66 67 69 68 77 83 77 65 58 59 60 76 83 85 86 85 87 88
96 93 94 91 87 87 85 88 80 74 82 77 69 67 68 64 69 68 68 78 83 72 67 63 60 55 56 54 59 79 85 85 88
96 91 98 99 91 88 85 85 83 75 70 70 68 68 68 67 74 70 75 78 80 68 64 64 66 66 65 62 63 69 69 65 75
96 94 98 98 93 83 84 84 84 80 73 66 61 65 64 59 62 68 68 73 85 72 68 65 69 72 72 72 72 72 69 57 56
76 97 94 84 79 78 80 81 77 71 63 65 55 58 62 57 57 64 66 70 89 87 76 74 74 76 76 78 79 78 77 72 65
82 85 84 81 68 70 72 72 63 59 59 64 61 63 61 55 56 57 56 61 67 91 94 82 83 82 81 80 80 82 86 84 79
71 70 71 69 65 64 65 61 62 62 66 66 63 64 62 58 58 57 57 58 60 62 69 80 90 86 83 79 78 81 84 85 85
67 67 70 73 77 75 71 71 69 68 69 68 66 64 62 60 61 62 63 63 64 66 68 67 72 78 77 84 74 76 77 78 84
75 77 79 81 83 74 69 69 69 68 68 64 64 64 62 64 65 64 64 65 66 68 64 66 63 76 74 80 72 69 68 68 65
83 81 88 82 75 74 76 74 70 67 68 67 65 66 65 65 63 62 64 64 62 64 67 66 65 71 72 76 72 70 70 64 62
89 88 80 75 76 75 71 67 64 63 66 64 65 65 64 61 62 68 66 68 69 71 71 62 69 72 77 84 80 70 62 58 56
87 83 79 79 76 75 72 68 62 63 67 65 61 62 62 70 68 63 65 66 72 68 72 68 76 78 79 88 79 66 69 67 59
90 81 80 79 76 72 72 66 67 68 64 68 66 62 64 66 64 64 64 66 76 79 83 84 95 84 87 87 94 94 76 61 62
87 84 82 81 73 67 67 70 72 72 72 71 60 62 65 64 67 68 68 77 81 87 91 86 97 98 93 94 88 77 64 62 60
87 82 80 79 76 70 71 73 78 74 71 60 60 55 50 59 71 72 74 76 80 87 93 94 97 97 94 82 71 67 63 61 64
87 94 97 93 83 76 75 82 78 70 77 74 60 62 54 56 64 74 74 75 79 85 91 92 92 92 88 83 72 70 67 71 72
68 81 89 93 91 98 99 99 95 80 76 83 78 82 79 67 54 70 76 78 78 82 84 87 90 84 80 78 78 75 74 82 72
83 85 98 99 99 97 99 100 93 90 93 90 92 84 80 77 66 57 55 78 81 83 83 85 87 91 93 92 80 79 76 94 90

GFSFLT1_925_rhum_105.txt.gz
RH
85 83 79 74 77 81 82 80 88 84 60 47 44 54 58 57 58 60 63 72 84 90 75 81 83 86 86 86 87 85 85 88 88
78 82 80 76 80 81 83 80 82 78 68 59 54 60 59 55 59 61 67 80 82 81 81 75 82 84 84 85 87 84 85 87 87
82 80 80 82 79 89 88 77 80 87 73 63 61 61 63 57 61 63 74 77 84 83 77 71 72 72 86 88 88 86 85 88 87
84 84 86 84 83 88 88 78 75 85 75 66 63 64 64 59 62 60 73 75 85 74 72 74 76 67 62 64 68 70 83 88 87
83 87 87 88 84 85 87 80 73 76 77 70 65 64 64 61 66 64 66 72 74 64 65 70 71 67 67 69 70 70 62 61 68
85 88 88 90 87 86 88 87 80 73 69 65 61 60 60 52 57 62 63 67 76 70 70 69 70 70 71 74 74 75 73 65 60
73 87 87 91 91 88 87 84 81 74 67 59 46 55 54 50 51 63 60 62 73 82 78 79 76 74 74 76 78 80 80 78 71
85 93 96 94 84 87 80 75 74 61 50 52 54 53 54 49 51 55 53 57 62 80 98 90 84 80 80 79 80 79 79 82 83
70 77 75 70 68 60 64 59 52 53 53 54 54 55 54 53 53 54 55 57 59 62 67 74 91 81 76 72 76 75 74 78 80
63 61 62 60 56 56 59 58 57 54 54 58 58 56 55 53 54 56 61 64 64 66 68 67 69 77 74 74 72 69 70 68 91
59 59 59 61 65 63 60 61 60 57 58 57 55 54 55 55 57 60 62 63 63 63 67 65 64 70 74 75 72 69 68 68 62
68 65 68 68 67 62 63 59 58 58 57 58 56 57 55 57 56 58 58 64 64 62 63 65 61 66 71 72 75 74 70 60 55
74 73 76 74 68 65 63 62 61 56 56 58 57 59 58 57 55 56 60 59 61 64 69 72 67 68 73 74 81 74 61 55 56
84 79 74 69 67 67 64 60 57 54 57 59 55 56 55 56 58 57 56 59 62 68 67 72 74 74 79 82 84 70 60 61 62
82 76 72 68 69 66 65 62 60 57 57 58 56 56 58 65 58 60 61 59 71 73 77 79 84 82 83 95 98 88 74 70 66
81 76 74 72 70 67 63 62 61 63 63 61 60 56 54 57 60 60 59 70 75 80 82 80 82 96 95 97 95 84 71 71 65
79 81 82 82 80 73 64 61 63 66 66 66 61 55 47 58 63 63 66 68 73 78 85 88 90 93 96 94 83 71 66 63 68
85 82 82 83 86 85 77 70 70 78 75 70 55 57 61 50 62 66 65 66 70 78 86 87 90 91 92 86 80 71 70 70 92
82 76 79 78 82 91 87 94 96 89 81 78 76 74 72 68 56 64 69 70 69 76 80 83 88 89 90 81 78 76 75 89 77
70 72 81 78 80 91 91 93 87 94 97 84 82 70 73 80 75 70 61 72 72 74 76 78 82 87 92 96 91 80 81 95 96

GFSFLT1_925_rhum_108.txt.gz
RH
82 90 74 79 74 67 87 93 56 43 39 36 56 57 58 60 59 60 66 69 84 82 78 79 81 82 85 87 86 85 87 88 90
84 84 75 74 76 84 91 89 66 53 45 44 56 58 58 60 63 67 60 79 83 83 81 82 80 80 85 86 85 85 88 87 87
85 79 73 76 76 80 89 89 74 65 58 56 58 61 62 61 64 66 58 76 85 82 73 67 60 75 71 76 70 70 84 85 88
76 75 80 78 79 91 83 80 92 72 61 57 58 63 64 63 66 69 56 68 82 67 67 67 68 67 64 67 67 64 71 76 85
83 80 79 79 78 86 81 77 83 85 68 61 59 61 63 65 65 67 56 64 71 65 66 69 69 70 72 72 73 72 64 64 63
84 81 80 80 80 82 85 78 70 67 64 59 56 60 59 58 63 64 56 62 67 68 69 68 69 71 73 75 76 76 76 71 67
81 79 80 81 80 82 87 80 74 70 63 53 43 55 55 51 54 64 60 59 72 75 76 76 74 74 75 76 77 76 78 80 79
86 85 83 85 86 86 84 76 72 60 66 58 55 54 54 51 52 53 51 55 61 76 88 85 81 79 77 74 71 73 75 74 77
87 84 88 89 86 75 69 64 57 58 53 54 56 54 54 54 52 54 53 55 59 63 70 83 88 79 77 75 73 71 70 72 74
82 79 77 73 61 73 60 65 56 54 53 54 57 56 57 55 54 56 58 63 65 67 68 66 70 79 74 72 73 70 69 71 68
69 68 68 66 57 57 58 60 59 58 54 58 59 57 56 55 55 60 61 64 62 62 62 62 62 71 70 72 75 68 64 64 54
63 60 60 59 62 64 63 61 61 60 58 58 57 56 56 54 55 60 60 62 62 62 66 66 64 62 72 76 82 73 70 56 50
61 63 64 68 68 66 62 60 61 60 59 60 59 58 58 58 56 56 56 58 64 66 68 72 72 68 67 89 84 78 67 54 51
74 71 72 73 69 67 64 63 62 60 56 57 55 56 57 56 56 54 58 58 59 62 69 73 78 72 76 92 96 81 63 57 56
76 75 76 72 69 68 66 63 61 58 55 59 58 57 56 54 56 59 62 61 61 70 80 83 77 79 86 97 99 80 67 60 58
78 81 76 70 69 68 66 65 63 61 60 62 53 56 54 60 60 60 61 65 70 78 85 76 76 89 97 97 99 89 74 68 71
83 75 75 73 72 71 69 64 63 63 62 67 66 79 61 61 58 57 63 68 74 77 85 91 85 86 88 95 94 82 70 71 81
79 80 81 82 79 80 76 76 74 72 69 71 72 78 76 69 63 64 66 66 71 76 80 89 93 91 89 91 83 73 70 73 88
78 76 77 75 73 74 73 77 80 76 89 92 84 75 76 80 72 70 67 66 69 76 81 82 87 89 89 91 85 78 78 89 82
77 72 70 73 70 66 66 74 68 77 89 96 95 84 74 70 89 89 73 72 69 74 76 81 83 85 89 96 95 84 83 99 96

GFSFLT1_925_rhum_111.txt.gz
RH
94 75 88 82 67 92 94 73 50 41 33 53 58 59 60 59 63 66 59 71 82 80 80 83 88 90 89 88 89 89 90 90 91
92 82 84 76 63 89 93 68 46 38 46 57 59 62 65 64 62 46 53 77 85 84 84 86 87 86 86 86 89 90 89 90 91
90 81 77 65 76 83 89 88 58 49 49 59 61 62 68 65 64 47 57 78 88 86 83 77 77 74 74 80 70 82 87 89 91
86 76 69 72 72 82 84 86 68 58 54 56 63 65 65 68 68 58 52 72 87 84 71 67 67 67 69 69 68 64 63 64 85
75 72 73 73 79 75 78 84 86 63 56 54 63 66 64 69 68 68 53 65 77 65 65 68 68 68 68 67 70 72 67 67 67
75 78 78 76 84 74 74 73 83 68 58 52 56 60 64 69 70 67 55 59 66 66 67 69 70 70 71 71 72 74 76 75 72
80 80 77 76 79 81 76 71 68 63 58 48 46 58 55 58 62 67 64 57 70 71 75 76 76 77 77 76 74 71 77 78 77
82 81 80 76 76 81 83 77 72 65 64 57 50 55 55 55 53 53 52 53 61 78 84 79 81 79 79 76 76 72 70 70 73
81 81 82 81 82 83 84 73 66 58 60 58 56 56 55 53 53 54 55 53 58 64 72 78 81 82 80 76 75 78 73 72 70
83 84 86 88 85 82 67 59 56 57 55 54 56 58 57 55 55 56 57 63 63 66 69 66 72 77 70 75 75 73 74 67 56
88 82 86 86 72 66 63 61 62 57 54 55 58 59 58 56 57 58 60 63 63 61 62 65 66 67 67 72 76 72 70 61 49
79 78 75 66 61 64 64 61 61 60 57 56 60 59 56 56 54 56 59 58 60 61 61 68 68 70 69 80 83 74 69 58 48
72 68 67 67 63 62 64 63 62 62 61 60 59 58 57 58 57 59 57 60 58 60 68 70 72 72 71 80 97 80 73 57 51
66 63 62 62 66 68 65 62 63 62 60 59 60 59 56 56 58 57 60 63 61 63 64 71 76 77 74 90 98 89 71 58 56
61 61 64 67 69 66 64 65 64 63 59 57 59 61 60 57 59 57 60 63 62 60 67 80 81 77 82 93 100 95 71 65 63
72 70 73 72 70 69 67 65 64 63 60 62 60 62 56 54 62 61 61 62 63 58 81 86 78 81 96 97 99 98 96 83 74
77 76 74 77 73 69 69 68 67 64 63 65 72 76 68 65 64 61 59 65 68 72 84 91 84 83 85 93 99 97 87 74 74
83 76 82 79 74 74 73 69 68 69 75 74 80 89 81 75 66 63 62 68 71 76 79 90 88 85 82 83 89 90 80 74 83
83 82 82 81 77 76 74 75 75 72 76 85 83 90 87 76 83 72 69 69 72 76 75 75 81 88 89 89 86 82 76 85 83
78 78 73 75 73 71 72 69 70 75 86 85 97 98 92 90 89 91 77 74 73 78 77 76 79 83 85 86 87 86 82 98 93

GFSFLT1_925_rhum_114.txt.gz
RH
99 82 89 78 84 96 96 74 66 60 58 62 64 62 71 72 67 60 65 71 84 88 88 90 90 91 91 92 91 90 92 91 90
88 80 86 74 72 95 57 49 44 43 59 62 64 63 63 61 50 43 61 83 88 89 89 91 90 92 88 91 93 92 91 92 90
81 78 81 62 75 92 48 43 39 54 59 62 67 66 66 65 45 49 61 85 90 88 70 69 74 71 73 85 88 90 90 94 92
80 82 75 58 73 75 62 52 46 50 60 64 68 70 68 68 57 48 58 77 89 79 71 72 69 68 72 72 73 74 86 87 93
85 78 65 81 82 79 70 62 55 53 55 64 67 69 69 71 70 59 54 66 75 64 66 70 69 68 69 70 74 76 75 72 69
80 72 70 74 78 76 75 83 61 54 54 59 66 69 70 71 71 64 55 58 64 66 67 69 70 72 74 71 71 74 76 76 74
76 73 72 74 80 72 70 74 72 62 53 52 60 62 61 66 70 68 64 55 61 68 72 74 75 76 76 75 73 72 73 70 71
73 76 74 76 80 82 76 71 66 60 55 45 49 57 56 55 60 59 54 53 59 70 74 79 81 79 79 76 74 72 72 69 70
79 78 77 78 79 85 83 73 67 64 63 58 57 56 57 55 55 55 55 53 56 64 70 72 76 77 74 77 75 74 74 72 66
80 80 81 79 80 85 82 76 69 63 59 56 57 58 57 55 55 55 57 63 63 65 69 70 71 75 71 73 77 74 71 68 58
82 82 84 83 81 82 80 69 59 58 58 54 55 58 58 58 57 56 59 63 62 63 63 66 68 71 69 71 76 74 71 66 51
82 83 85 86 85 83 73 62 64 62 58 56 56 60 60 59 57 56 55 58 60 62 60 63 68 70 72 76 87 78 74 67 53
84 84 85 79 81 75 69 66 65 65 62 59 58 61 60 58 59 58 54 53 60 57 61 67 70 73 74 71 94 93 80 66 56
83 84 83 75 72 67 67 66 67 65 64 63 62 61 59 59 60 59 60 60 64 61 64 67 71 76 75 73 95 99 84 65 59
79 79 68 68 71 69 70 68 65 62 64 62 60 60 61 61 63 59 58 61 62 62 65 73 80 76 76 89 96 100 84 70 64
78 72 68 68 66 69 69 67 65 67 64 62 60 63 64 62 63 60 61 64 64 65 69 76 76 74 85 87 94 93 91 81 73
68 65 63 63 69 69 68 66 69 66 64 65 73 84 72 69 68 64 64 67 67 66 65 76 80 76 84 85 86 87 89 84 81
62 62 62 68 71 72 68 68 68 69 70 67 69 92 85 79 72 70 74 70 69 66 67 78 85 77 77 80 80 80 90 81 94
70 72 73 74 75 78 76 72 72 73 79 82 78 72 68 86 88 74 76 77 72 69 75 82 87 87 84 85 85 84 82 88 97
81 80 80 78 86 85 84 99 96 75 79 86 96 100 98 87 89 95 91 84 79 77 77 77 81 86 87 85 86 85 83 92 96

GFSFLT1_925_rhum_117.txt.gz
RH
88 79 80 82 85 90 92 95 75 65 76 66 81 83 80 77 69 68 60 70 90 91 94 95 94 94 94 93 93 93 92 91 90
83 74 78 82 86 93 90 75 62 62 70 65 66 70 65 61 50 51 63 82 90 92 94 95 96 95 95 96 94 94 93 93 93
84 77 80 78 82 77 68 57 51 62 66 67 65 66 65 52 48 56 68 87 92 92 86 80 88 96 95 95 95 94 94 94 95
87 78 82 62 94 62 47 39 42 60 65 67 67 66 68 56 48 52 61 82 92 78 70 74 77 78 77 82 89 86 81 88 92
86 78 75 59 74 60 49 42 46 58 64 69 69 68 70 70 65 53 56 68 83 69 68 70 70 72 72 73 75 75 78 76 73
82 79 71 64 79 66 58 51 50 54 61 68 71 70 68 70 70 62 57 65 72 66 68 70 70 72 72 70 70 75 73 71 70
87 78 68 79 80 76 69 64 56 55 56 64 69 69 68 68 70 67 64 62 71 69 71 72 73 76 74 73 73 68 67 65 67
85 78 73 82 80 79 73 74 69 58 53 56 62 63 60 58 61 64 62 58 75 71 73 76 76 77 78 79 75 72 68 68 71
85 76 76 72 79 78 74 70 65 59 55 49 46 57 57 57 56 58 58 56 62 82 72 74 77 75 74 76 76 76 74 72 69
86 74 72 77 82 82 78 75 68 64 60 60 57 58 59 59 57 56 57 60 62 64 68 71 73 70 72 72 75 76 74 74 64
83 77 74 78 79 81 83 80 74 68 63 59 57 58 60 60 56 56 57 60 64 64 62 65 69 71 71 70 74 73 73 73 61
79 81 78 79 79 81 88 85 79 70 63 60 56 56 59 60 60 58 57 60 63 63 63 63 65 70 73 73 80 79 82 76 58
84 84 81 80 83 84 85 84 80 67 65 62 58 56 59 62 61 60 59 59 62 63 65 64 67 72 74 74 81 91 89 75 60
91 87 86 81 85 86 86 85 74 69 68 65 61 59 62 62 60 60 60 59 60 63 64 67 68 68 71 71 85 96 89 75 62
96 92 89 84 86 86 86 80 75 72 67 67 66 64 62 63 64 62 61 61 61 66 64 65 62 69 64 74 90 96 88 74 65
94 96 90 87 88 80 79 75 72 72 69 68 67 65 63 64 63 65 62 62 63 64 66 63 63 67 62 87 96 85 78 80 81
92 94 87 88 89 82 75 72 74 73 68 72 75 83 73 69 69 68 66 64 65 66 65 59 72 73 76 88 82 78 72 89 91
85 91 90 82 75 75 72 70 76 71 70 70 69 92 90 81 75 74 73 72 71 71 65 66 70 78 79 90 90 80 81 86 88
88 93 88 77 71 70 67 72 73 73 74 77 74 80 74 87 88 78 78 83 82 76 72 64 68 80 80 80 81 81 81 81 86
87 93 82 71 67 66 68 76 76 77 80 84 91 96 98 92 88 94 94 86 85 82 75 73 75 80 87 85 86 86 85 84 92

GFSFLT1_925_rhum_120.txt.gz
RH
78 75 74 75 77 82 92 90 72 69 69 73 85 84 83 79 76 63 65 80 93 94 96 96 96 95 95 94 94 94 93 92 92
78 78 79 82 82 86 95 90 67 66 63 77 82 81 72 64 55 57 72 90 93 95 96 97 96 96 96 96 95 95 94 94 93
80 76 78 83 86 91 97 78 64 65 63 62 64 64 61 46 50 59 71 90 94 94 95 96 97 96 94 93 94 96 96 96 96
80 77 76 77 74 94 86 72 62 66 65 63 64 65 64 45 51 57 65 85 94 89 82 87 84 80 74 76 79 77 81 90 93
88 79 79 72 56 70 63 58 59 64 65 65 65 66 69 64 56 54 61 75 89 73 73 74 73 70 69 71 74 76 78 77 77
88 83 83 57 53 48 51 46 57 63 66 66 68 68 68 69 67 59 59 71 86 71 69 68 69 72 72 70 69 71 70 69 68
86 82 79 63 55 54 52 52 53 59 65 69 70 70 68 69 70 67 65 70 90 74 69 71 72 74 75 72 72 68 67 68 70
85 82 80 66 72 74 68 63 60 56 58 65 70 70 68 64 67 68 66 64 92 85 72 74 74 75 79 77 75 73 70 70 73
86 85 78 76 86 81 77 75 69 60 58 59 66 65 63 58 57 60 62 60 74 94 81 74 75 77 75 77 78 77 74 75 74
86 86 78 82 83 83 80 72 74 72 62 56 53 52 58 59 57 58 59 59 62 70 86 82 80 72 67 73 71 75 77 82 64
89 86 80 82 78 80 81 70 70 67 64 60 61 57 60 60 60 57 57 59 63 64 65 65 67 66 70 71 77 73 78 73 63
90 88 82 78 76 75 83 81 80 74 71 68 65 59 59 61 61 57 58 58 60 65 66 65 66 68 71 73 75 82 80 74 66
93 88 84 80 75 76 84 85 89 85 79 72 61 59 56 59 61 61 61 60 59 63 66 67 68 69 71 74 81 91 87 78 69
98 96 88 84 83 80 80 85 94 90 82 68 63 62 58 58 61 64 62 61 61 60 64 66 66 68 69 65 73 98 92 81 70
95 98 95 95 89 81 83 87 91 90 79 72 70 65 62 62 64 64 62 62 63 61 63 66 67 66 65 63 76 99 92 80 70
98 100 100 100 96 87 83 89 91 91 84 81 74 71 69 67 66 66 65 64 64 65 68 66 66 65 61 69 87 97 84 80 80
98 99 100 96 90 92 90 90 94 93 83 78 79 85 74 66 66 68 67 68 66 69 69 67 64 64 65 94 100 99 99 84 82
100 100 100 86 81 93 92 92 91 85 81 77 73 93 90 83 74 72 72 71 70 72 73 70 63 60 65 86 97 94 86 86 81
99 100 97 75 90 98 88 90 89 85 83 83 75 77 74 88 87 80 78 75 76 78 78 75 74 74 74 79 89 88 84 81 83
100 100 100 89 89 78 81 87 86 79 81 78 80 92 93 87 88 90 91 85 82 82 80 77 80 86 84 81 84 79 83 82 86

GFSFLT1_925_rhum_126.txt.gz
RH
94 93 91 85 80 77 77 84 88 86 77 88 82 71 71 69 60 62 72 67 92 94 95 95 95 94 93 93 93 93 93 93 92
78 83 87 81 78 76 79 81 79 76 78 93 84 73 67 63 59 64 69 78 93 94 96 96 96 96 95 96 95 95 95 95 94
84 69 79 76 74 77 82 80 78 77 85 93 82 75 64 58 58 65 70 82 94 95 97 96 92 93 92 91 96 97 97 97 96
84 75 73 74 79 81 82 84 80 75 90 88 78 66 54 53 57 64 70 80 94 96 87 86 81 80 80 81 81 78 78 82 85
84 77 76 76 80 82 79 87 81 74 79 76 66 62 50 54 63 64 68 79 94 94 82 81 76 69 69 71 71 68 66 63 63
93 83 80 74 77 80 78 87 78 77 72 71 66 66 61 57 58 60 69 78 94 93 79 74 73 70 69 68 66 64 62 62 60
89 84 83 78 76 68 68 81 80 74 69 74 75 72 63 62 63 62 60 68 94 93 82 74 71 71 71 72 71 67 63 62 60
88 88 92 89 88 88 81 82 81 74 64 65 67 67 66 61 64 66 65 63 93 93 90 75 74 73 74 77 76 73 70 67 66
82 87 90 87 88 81 72 65 60 61 68 67 67 66 68 62 62 63 67 66 68 92 94 87 79 74 74 74 78 79 78 74 71
84 91 89 88 85 79 75 74 65 64 62 64 64 63 63 62 59 60 63 64 64 74 95 96 95 80 76 75 78 81 82 78 78
94 91 92 89 87 84 84 83 69 67 64 63 61 59 57 59 58 58 60 60 62 64 68 89 96 93 94 95 84 74 85 80 81
99 99 95 90 89 88 92 88 83 74 76 68 62 60 58 57 57 59 61 62 61 61 64 65 72 87 92 88 77 80 74 80 82
77 95 95 95 93 92 93 94 90 86 76 75 66 64 60 60 56 56 61 64 62 64 61 63 64 64 68 74 83 80 85 86 86
75 74 81 96 97 96 96 97 98 87 82 79 67 64 64 63 61 58 57 64 68 64 65 61 62 64 66 68 81 90 91 88 88
80 79 80 86 92 98 100 99 100 98 91 85 82 68 68 69 65 59 56 59 68 73 70 69 62 62 66 69 71 86 92 92 91
81 80 81 85 92 94 94 99 100 100 97 96 90 82 71 71 66 64 64 59 66 74 75 70 71 69 66 67 71 71 77 99 98
84 83 85 86 90 91 90 97 98 99 100 90 84 84 73 66 67 69 72 66 64 73 75 71 75 73 77 74 70 59 65 100 99
88 86 89 88 90 96 97 94 97 98 100 93 88 87 75 58 62 70 70 71 69 73 75 73 74 80 79 81 73 55 78 95 99
88 91 88 90 91 92 95 96 98 96 95 100 96 86 78 83 75 75 77 76 68 72 79 81 81 84 83 79 82 71 90 90 99
88 90 92 95 94 94 96 99 100 100 91 91 94 99 97 93 86 81 75 86 85 83 85 87 91 86 82 83 74 74 81 92 91

GFSFLT1_925_rhum_129.txt.gz
RH
95 91 92 85 79 77 79 81 83 85 88 89 100 81 66 62 53 59 64 67 78 92 77 77 95 94 93 93 93 93 93 92 92
92 90 90 87 77 76 75 81 88 88 84 90 92 74 62 65 54 59 65 84 94 95 96 96 96 96 96 96 95 94 95 95 95
72 86 87 81 78 75 77 79 76 77 80 90 88 75 63 57 52 58 66 75 93 95 96 90 92 94 95 93 95 97 96 96 96
78 74 78 81 76 73 80 78 72 73 87 84 86 78 57 54 50 57 68 67 93 96 87 85 87 85 79 77 79 79 79 74 72
87 82 73 76 75 75 77 80 70 71 83 90 85 70 56 56 54 59 67 66 94 95 86 85 87 79 70 70 70 66 61 59 60
93 88 78 75 74 76 77 83 77 70 69 72 70 64 67 49 52 54 64 64 94 95 88 82 80 78 70 69 68 63 60 59 58
83 86 80 80 75 77 79 77 85 72 76 70 66 67 64 54 53 54 61 56 94 94 95 79 77 81 75 72 69 67 62 62 64
80 86 86 87 85 88 89 90 87 83 72 58 68 68 62 56 55 58 62 58 79 92 96 82 76 78 78 75 75 74 72 69 70
78 84 88 86 84 86 81 75 81 80 70 57 56 56 60 60 56 56 62 63 63 93 92 96 82 77 76 78 81 79 77 77 74
82 83 88 85 84 85 77 68 61 60 58 58 56 56 55 57 56 56 58 60 62 61 90 94 96 91 82 84 90 87 87 81 80
80 90 92 91 87 87 81 67 60 58 60 60 57 54 53 52 54 54 54 57 57 60 61 74 96 96 96 94 93 85 81 86 90
71 91 91 90 91 89 83 80 76 64 60 60 56 55 53 50 50 52 54 57 59 58 59 61 67 87 96 90 92 82 75 79 85
66 68 89 83 87 92 93 83 84 78 70 67 64 61 55 53 51 50 50 54 60 61 59 60 62 64 69 92 90 82 78 79 79
64 63 63 72 86 86 93 96 88 88 82 73 64 66 62 58 55 55 53 54 57 62 63 62 60 61 63 64 76 86 76 84 84
65 67 69 69 76 86 89 94 96 92 92 88 85 75 62 58 61 60 57 56 55 61 66 65 65 62 60 62 64 69 74 85 85
63 67 69 70 76 77 83 88 95 99 100 100 98 94 83 77 72 66 68 59 57 57 67 72 72 70 62 61 61 63 67 82 84
69 70 71 71 75 79 83 87 92 98 95 96 91 93 87 82 73 70 69 64 62 60 62 69 73 71 69 67 64 61 65 72 88
79 79 78 77 79 80 84 86 88 88 97 99 93 95 90 68 73 76 72 67 68 62 61 72 73 71 71 72 72 65 65 66 75
77 80 84 85 83 85 87 87 88 89 88 99 97 86 72 76 70 70 72 70 68 69 67 71 75 74 73 76 78 71 66 57 65
84 85 86 86 87 89 88 89 90 93 93 88 91 99 98 86 98 82 88 80 76 70 72 74 78 80 82 82 82 85 83 66 70

GFSFLT1_925_rhum_132.txt.gz
RH
80 91 90 91 84 83 77 79 82 82 87 87 93 74 59 62 59 61 67 73 82 93 86 83 95 93 93 93 94 95 94 94 94
89 86 89 86 81 77 77 78 81 80 78 82 85 69 59 63 57 60 74 71 95 96 96 96 96 96 96 96 96 96 96 96 96
82 86 89 89 79 76 76 79 83 82 76 80 84 72 57 54 55 61 71 72 95 96 92 88 94 93 92 94 93 94 96 96 96
78 78 82 86 79 77 78 80 71 70 73 78 86 73 59 52 56 58 64 67 88 97 85 85 88 84 80 77 74 72 73 74 75
88 81 78 80 80 77 75 80 74 69 84 91 88 74 52 51 57 54 63 69 70 92 78 81 84 78 75 71 69 65 63 63 62
88 87 84 77 78 77 75 77 84 71 68 82 81 69 54 43 52 55 58 63 67 95 84 78 81 79 71 68 66 63 62 62 60
85 84 85 82 77 77 77 76 79 83 69 66 60 56 52 59 57 53 56 59 57 94 92 80 79 81 75 71 69 67 66 64 64
80 85 86 82 80 79 79 81 80 80 74 74 69 62 52 57 58 56 58 59 55 90 93 72 72 75 75 75 76 74 73 72 70
78 82 83 82 83 83 81 84 82 77 81 64 69 62 60 61 60 56 57 61 61 62 92 93 72 72 74 82 81 78 77 80 81
72 80 86 87 85 86 83 85 80 74 68 72 64 58 58 59 60 58 57 61 61 59 70 93 96 93 87 91 88 76 80 81 84
76 76 83 86 85 84 87 84 74 66 66 64 61 58 57 55 56 57 57 56 56 57 58 67 93 95 96 96 95 81 81 84 87
71 76 76 85 86 85 83 82 79 65 57 58 58 59 58 54 53 52 55 55 55 58 58 57 61 80 94 95 95 87 84 82 80
65 69 73 73 86 89 86 86 82 77 75 63 62 61 57 56 54 51 50 53 55 57 61 60 57 60 65 80 93 91 90 82 80
64 67 67 72 73 74 81 89 95 88 83 77 69 66 64 62 58 54 52 51 52 57 61 62 62 59 60 62 74 84 83 82 81
62 64 66 66 70 84 78 74 76 90 90 91 90 82 77 70 65 59 56 55 54 54 57 61 64 65 63 61 62 65 68 72 76
60 63 66 69 71 72 81 79 80 79 82 91 91 93 84 78 73 73 63 60 58 57 58 62 62 59 65 63 63 60 61 63 67
60 63 66 71 72 72 78 77 77 78 79 90 95 91 83 84 80 78 72 70 64 56 59 56 52 55 57 64 68 66 62 63 66
66 68 72 75 77 77 77 73 79 90 91 88 87 98 95 86 84 86 83 74 69 66 61 54 61 57 61 43 53 60 63 64 65
76 80 79 82 84 83 82 83 83 90 97 95 100 91 79 88 85 76 81 79 76 70 68 64 61 62 67 59 65 68 70 70 70
80 86 87 91 92 89 89 88 86 85 92 93 90 100 99 95 93 88 83 81 78 74 70 71 67 63 71 74 74 75 80 82 81